GEFSMA_prec_meanprecacc_186.txt.gz
Total_Precipitation_Accumulation
0.65 0.64 0.62 0.61 0.58 0.52 0.47 0.46 0.44 0.42 0.39 0.36 0.36 0.34 0.30 0.24 0.20 0.20 0.18 0.20 0.22 0.23 0.28 0.38 0.53 0.81 1.10 1.16 1.22 1.12 1.00 0.93 0.81 0.67 0.64 0.76 0.85 0.82 0.77 0.83 0.77 0.62 0.57
0.68 0.66 0.67 0.62 0.58 0.56 0.50 0.45 0.39 0.37 0.35 0.32 0.30 0.27 0.26 0.24 0.21 0.23 0.23 0.24 0.24 0.23 0.25 0.31 0.41 0.57 0.89 1.12 1.25 1.42 1.26 1.12 1.05 0.87 0.68 0.66 0.76 0.81 0.82 0.82 0.87 0.78 0.64
0.83 0.74 0.69 0.66 0.60 0.60 0.59 0.56 0.51 0.43 0.39 0.33 0.29 0.26 0.23 0.22 0.20 0.21 0.22 0.25 0.27 0.25 0.26 0.29 0.33 0.42 0.60 0.86 1.11 1.41 1.58 1.34 1.25 1.19 0.96 0.71 0.69 0.76 0.82 0.87 0.90 0.95 0.83
0.90 0.89 0.80 0.70 0.63 0.65 0.67 0.66 0.64 0.57 0.47 0.40 0.35 0.30 0.25 0.21 0.19 0.18 0.19 0.21 0.26 0.28 0.27 0.30 0.30 0.35 0.45 0.62 0.85 1.17 1.72 1.68 1.50 1.43 1.40 1.09 0.82 0.77 0.77 0.85 0.92 0.98 1.05
0.94 0.96 0.94 0.85 0.74 0.72 0.69 0.65 0.62 0.59 0.54 0.47 0.42 0.39 0.34 0.28 0.23 0.20 0.17 0.16 0.18 0.24 0.28 0.30 0.31 0.32 0.37 0.46 0.63 0.93 1.54 1.87 1.85 1.79 1.75 1.59 1.21 0.93 0.84 0.85 0.94 1.01 1.10
0.95 0.91 0.95 0.95 0.86 0.79 0.74 0.67 0.62 0.55 0.50 0.48 0.47 0.46 0.40 0.34 0.30 0.25 0.21 0.17 0.15 0.17 0.22 0.26 0.29 0.29 0.30 0.36 0.43 0.59 1.00 1.46 1.73 1.88 1.92 1.98 1.79 1.32 1.03 0.94 0.95 1.06 1.14
1.04 0.96 0.90 0.90 0.90 0.83 0.74 0.70 0.68 0.65 0.59 0.52 0.54 0.58 0.54 0.43 0.35 0.30 0.25 0.21 0.17 0.14 0.15 0.19 0.25 0.29 0.29 0.31 0.33 0.38 0.55 0.93 1.32 1.59 1.73 1.89 2.13 1.93 1.46 1.17 1.07 1.11 1.24
1.00 1.03 0.95 0.86 0.81 0.80 0.78 0.71 0.70 0.69 0.67 0.60 0.57 0.62 0.61 0.57 0.44 0.31 0.25 0.22 0.19 0.16 0.15 0.15 0.18 0.24 0.29 0.29 0.25 0.26 0.34 0.56 0.95 1.34 1.59 1.74 1.99 2.27 2.06 1.58 1.31 1.26 1.33
0.93 0.96 0.96 0.91 0.83 0.75 0.73 0.70 0.64 0.64 0.65 0.59 0.50 0.61 0.68 0.55 0.40 0.31 0.24 0.20 0.18 0.17 0.14 0.14 0.15 0.17 0.22 0.30 0.29 0.24 0.23 0.34 0.62 1.00 1.44 1.73 1.93 2.22 2.40 2.15 1.71 1.47 1.48
0.91 0.89 0.89 0.89 0.89 0.80 0.69 0.65 0.63 0.62 0.65 0.65 0.54 0.46 0.49 0.49 0.50 0.37 0.25 0.23 0.21 0.19 0.16 0.14 0.14 0.15 0.18 0.24 0.31 0.30 0.26 0.27 0.43 0.74 1.14 1.68 2.05 2.29 2.63 2.58 2.26 1.85 1.66
0.96 0.90 0.86 0.85 0.83 0.81 0.72 0.63 0.61 0.62 0.65 0.66 0.61 0.51 0.43 0.35 0.35 0.45 0.32 0.24 0.26 0.24 0.20 0.17 0.15 0.15 0.16 0.19 0.24 0.30 0.34 0.36 0.48 0.66 0.93 1.39 2.11 2.45 2.85 3.03 2.70 2.18 1.85
1.01 0.96 0.87 0.83 0.78 0.73 0.70 0.63 0.56 0.58 0.60 0.60 0.58 0.54 0.53 0.49 0.39 0.41 0.39 0.26 0.24 0.23 0.22 0.21 0.20 0.20 0.20 0.21 0.23 0.33 0.39 0.43 0.55 0.65 0.73 1.03 1.63 2.34 2.79 3.08 2.92 2.40 1.99
1.00 0.94 0.90 0.82 0.76 0.70 0.68 0.67 0.63 0.58 0.57 0.58 0.57 0.54 0.51 0.46 0.42 0.45 0.51 0.41 0.33 0.27 0.26 0.25 0.23 0.24 0.26 0.27 0.28 0.35 0.37 0.42 0.49 0.57 0.58 0.69 1.02 1.62 2.33 2.88 3.15 2.85 2.32
0.91 0.84 0.84 0.82 0.75 0.69 0.69 0.71 0.69 0.63 0.59 0.59 0.55 0.54 0.55 0.49 0.49 0.55 0.61 0.66 0.61 0.40 0.32 0.28 0.23 0.22 0.26 0.29 0.28 0.34 0.31 0.38 0.43 0.48 0.52 0.55 0.69 1.03 1.60 2.25 3.01 3.44 3.11
0.87 0.86 0.84 0.83 0.79 0.77 0.76 0.76 0.75 0.67 0.63 0.62 0.61 0.60 0.62 0.57 0.56 0.55 0.58 0.69 0.88 0.76 0.41 0.26 0.25 0.25 0.28 0.32 0.31 0.29 0.27 0.34 0.39 0.43 0.48 0.51 0.57 0.75 1.09 1.59 2.16 3.05 3.62
0.86 0.87 0.90 0.90 0.85 0.80 0.82 0.84 0.79 0.71 0.69 0.67 0.67 0.68 0.65 0.61 0.63 0.65 0.66 0.65 0.72 0.82 0.62 0.29 0.25 0.26 0.31 0.39 0.42 0.35 0.32 0.39 0.41 0.42 0.43 0.43 0.46 0.58 0.80 1.13 1.53 2.11 2.99
0.85 0.84 0.84 0.91 0.93 0.87 0.81 0.86 0.85 0.78 0.77 0.72 0.70 0.71 0.68 0.65 0.73 0.76 0.79 0.76 0.70 0.72 0.74 0.39 0.29 0.32 0.42 0.49 0.49 0.42 0.40 0.38 0.36 0.39 0.40 0.43 0.45 0.51 0.65 0.87 1.11 1.47 2.11
0.88 0.80 0.79 0.85 0.92 0.91 0.85 0.83 0.83 0.80 0.81 0.77 0.74 0.76 0.75 0.72 0.75 0.79 0.87 0.86 0.76 0.68 0.73 0.58 0.40 0.43 0.51 0.57 0.57 0.51 0.47 0.44 0.35 0.35 0.37 0.42 0.46 0.52 0.60 0.73 0.91 1.14 1.49
1.08 0.92 0.83 0.84 0.93 0.99 0.93 0.84 0.84 0.83 0.79 0.76 0.74 0.79 0.82 0.83 0.77 0.77 0.88 0.93 0.85 0.77 0.76 0.73 0.51 0.43 0.50 0.61 0.69 0.65 0.57 0.55 0.45 0.39 0.38 0.40 0.44 0.49 0.55 0.63 0.77 0.94 1.10
1.16 1.07 0.93 0.87 0.94 1.06 1.08 1.05 1.04 0.95 0.86 0.76 0.67 0.69 0.79 0.92 0.93 0.94 0.98 0.96 0.97 0.98 0.92 0.87 0.69 0.55 0.57 0.65 0.79 0.82 0.74 0.66 0.58 0.49 0.47 0.44 0.45 0.48 0.50 0.52 0.55 0.65 0.83
1.05 1.06 1.02 0.95 0.95 1.15 1.37 1.52 1.41 1.12 0.92 0.81 0.67 0.63 0.73 0.96 1.13 1.30 1.35 1.23 1.23 1.32 1.25 1.16 1.02 0.85 0.73 0.76 0.84 0.84 0.88 0.78 0.70 0.62 0.54 0.47 0.43 0.41 0.40 0.43 0.45 0.50 0.61
0.99 0.99 0.99 0.96 0.95 1.12 1.46 1.68 1.36 1.02 0.89 0.82 0.74 0.65 0.71 0.95 1.09 1.19 1.32 1.30 1.32 1.48 1.54 1.46 1.30 1.08 0.82 0.71 0.75 0.88 1.03 1.10 0.97 0.74 0.64 0.56 0.49 0.46 0.39 0.35 0.38 0.44 0.52
0.94 0.94 0.91 0.89 0.87 0.94 1.27 1.50 1.26 0.95 0.85 0.80 0.76 0.70 0.72 0.83 0.95 0.97 1.04 1.06 1.08 1.24 1.45 1.53 1.46 1.13 0.93 0.81 0.93 1.08 1.09 1.16 1.04 0.94 0.93 0.88 0.63 0.53 0.42 0.42 0.47 0.45 0.51
0.89 0.89 0.87 0.84 0.80 0.84 1.14 1.40 1.23 0.97 0.87 0.80 0.79 0.72 0.67 0.72 0.84 0.97 1.03 0.98 0.91 0.98 1.20 1.38 1.55 1.34 1.14 1.13 1.31 1.48 1.50 1.47 1.26 1.15 1.11 1.21 0.91 0.66 0.54 0.50 0.51 0.46 0.48
0.88 0.85 0.82 0.83 0.78 0.77 1.02 1.40 1.30 1.00 0.92 0.84 0.82 0.76 0.68 0.64 0.81 0.94 0.91 0.85 0.79 0.84 0.95 1.14 1.26 1.28 1.28 1.41 1.65 1.96 2.03 1.94 1.68 1.38 1.23 1.23 1.19 1.06 0.93 0.77 0.66 0.58 0.51
0.82 0.83 0.79 0.79 0.77 0.71 0.85 1.28 1.41 1.05 0.94 0.87 0.86 0.80 0.84 0.82 0.88 0.89 0.80 0.81 0.88 0.81 0.77 0.80 0.83 0.85 0.89 1.01 1.36 1.76 1.98 2.01 1.80 1.70 1.47 1.30 1.34 1.37 1.56 1.27 0.94 0.70 0.56

GEFSMA_prec_meanprecacc_192.txt.gz
Total_Precipitation_Accumulation
0.65 0.65 0.65 0.64 0.64 0.61 0.58 0.55 0.50 0.47 0.42 0.39 0.39 0.37 0.33 0.27 0.22 0.21 0.19 0.21 0.24 0.26 0.34 0.46 0.62 0.91 1.19 1.25 1.30 1.20 1.07 1.01 0.87 0.73 0.69 0.80 0.88 0.84 0.78 0.85 0.78 0.63 0.57
0.69 0.68 0.70 0.65 0.62 0.61 0.58 0.56 0.51 0.46 0.41 0.37 0.34 0.31 0.29 0.27 0.23 0.25 0.25 0.25 0.25 0.25 0.29 0.38 0.50 0.68 1.00 1.23 1.36 1.52 1.35 1.20 1.14 0.95 0.75 0.72 0.80 0.84 0.84 0.84 0.88 0.79 0.65
0.83 0.75 0.72 0.69 0.64 0.64 0.65 0.63 0.59 0.50 0.46 0.40 0.35 0.31 0.27 0.25 0.22 0.23 0.25 0.27 0.29 0.27 0.28 0.34 0.40 0.52 0.71 0.98 1.23 1.51 1.68 1.44 1.34 1.28 1.05 0.80 0.75 0.81 0.84 0.89 0.91 0.96 0.84
0.90 0.90 0.82 0.73 0.67 0.71 0.72 0.73 0.70 0.62 0.52 0.45 0.41 0.35 0.30 0.25 0.21 0.21 0.21 0.23 0.28 0.30 0.30 0.33 0.35 0.42 0.55 0.73 0.97 1.28 1.83 1.79 1.61 1.53 1.49 1.18 0.90 0.83 0.83 0.88 0.95 0.99 1.07
0.94 0.97 0.96 0.88 0.79 0.77 0.75 0.72 0.69 0.66 0.59 0.52 0.47 0.44 0.40 0.33 0.27 0.24 0.21 0.19 0.20 0.26 0.30 0.32 0.35 0.36 0.44 0.55 0.74 1.04 1.64 1.98 1.97 1.91 1.86 1.70 1.31 1.01 0.91 0.90 0.98 1.04 1.12
0.96 0.92 0.97 0.98 0.92 0.85 0.81 0.74 0.69 0.62 0.57 0.54 0.53 0.51 0.45 0.40 0.36 0.31 0.26 0.21 0.19 0.20 0.24 0.29 0.33 0.33 0.35 0.44 0.54 0.72 1.11 1.58 1.85 2.01 2.04 2.10 1.92 1.43 1.11 1.01 1.03 1.12 1.17
1.04 0.97 0.92 0.93 0.94 0.89 0.81 0.77 0.74 0.72 0.66 0.59 0.61 0.66 0.60 0.48 0.40 0.35 0.32 0.28 0.23 0.19 0.19 0.24 0.29 0.34 0.34 0.38 0.42 0.49 0.68 1.06 1.46 1.73 1.88 2.04 2.28 2.09 1.59 1.27 1.16 1.20 1.30
1.02 1.05 0.97 0.90 0.86 0.86 0.85 0.80 0.77 0.76 0.74 0.67 0.63 0.68 0.69 0.66 0.52 0.36 0.31 0.30 0.26 0.23 0.21 0.21 0.24 0.30 0.35 0.35 0.31 0.35 0.45 0.68 1.07 1.48 1.73 1.89 2.16 2.44 2.23 1.73 1.45 1.38 1.44
0.96 0.99 1.00 0.96 0.88 0.81 0.81 0.79 0.74 0.72 0.72 0.66 0.56 0.67 0.74 0.62 0.49 0.40 0.31 0.26 0.25 0.26 0.23 0.22 0.22 0.24 0.29 0.36 0.34 0.30 0.31 0.45 0.72 1.10 1.55 1.85 2.09 2.43 2.62 2.34 1.88 1.62 1.62
0.95 0.93 0.93 0.93 0.95 0.87 0.76 0.74 0.74 0.73 0.75 0.74 0.63 0.54 0.54 0.53 0.55 0.45 0.35 0.32 0.29 0.27 0.26 0.24 0.23 0.23 0.26 0.32 0.37 0.36 0.33 0.37 0.54 0.85 1.25 1.78 2.16 2.43 2.83 2.81 2.47 2.05 1.84
1.01 0.93 0.90 0.88 0.88 0.86 0.78 0.72 0.73 0.75 0.77 0.77 0.72 0.61 0.53 0.44 0.42 0.50 0.40 0.34 0.36 0.32 0.28 0.27 0.25 0.24 0.25 0.29 0.34 0.37 0.41 0.43 0.58 0.76 1.05 1.51 2.23 2.57 3.00 3.23 2.91 2.40 2.05
1.06 0.98 0.89 0.85 0.81 0.77 0.76 0.70 0.64 0.66 0.69 0.70 0.67 0.64 0.63 0.60 0.48 0.48 0.45 0.32 0.31 0.30 0.29 0.30 0.31 0.30 0.29 0.31 0.33 0.44 0.49 0.50 0.62 0.73 0.83 1.15 1.75 2.47 2.94 3.28 3.16 2.65 2.23
1.04 0.97 0.92 0.84 0.78 0.73 0.71 0.71 0.69 0.63 0.62 0.66 0.65 0.60 0.57 0.53 0.48 0.51 0.56 0.46 0.39 0.34 0.35 0.35 0.32 0.34 0.35 0.36 0.38 0.46 0.49 0.52 0.57 0.64 0.66 0.79 1.14 1.76 2.48 3.06 3.38 3.12 2.61
0.93 0.86 0.86 0.83 0.76 0.71 0.71 0.74 0.74 0.68 0.64 0.64 0.61 0.59 0.59 0.53 0.54 0.60 0.67 0.72 0.68 0.48 0.41 0.38 0.33 0.32 0.36 0.38 0.38 0.45 0.43 0.49 0.51 0.55 0.59 0.63 0.81 1.16 1.75 2.43 3.21 3.68 3.35
0.89 0.87 0.86 0.85 0.81 0.78 0.78 0.79 0.78 0.72 0.68 0.66 0.65 0.64 0.65 0.61 0.60 0.60 0.64 0.74 0.95 0.84 0.50 0.35 0.33 0.34 0.38 0.43 0.42 0.39 0.37 0.45 0.49 0.51 0.55 0.58 0.68 0.88 1.22 1.75 2.34 3.25 3.83
0.89 0.89 0.92 0.92 0.87 0.81 0.84 0.88 0.83 0.76 0.75 0.72 0.72 0.72 0.68 0.65 0.67 0.70 0.72 0.72 0.78 0.90 0.71 0.37 0.32 0.33 0.41 0.50 0.55 0.46 0.41 0.49 0.50 0.51 0.51 0.50 0.55 0.69 0.93 1.27 1.69 2.27 3.15
0.90 0.88 0.87 0.93 0.95 0.88 0.82 0.89 0.89 0.84 0.82 0.78 0.75 0.75 0.71 0.69 0.77 0.80 0.84 0.83 0.78 0.79 0.82 0.47 0.36 0.38 0.50 0.59 0.62 0.55 0.52 0.49 0.46 0.49 0.49 0.51 0.54 0.62 0.78 1.00 1.25 1.62 2.24
0.93 0.85 0.83 0.88 0.95 0.93 0.86 0.85 0.86 0.85 0.86 0.83 0.79 0.80 0.78 0.75 0.79 0.83 0.92 0.92 0.84 0.77 0.82 0.67 0.48 0.50 0.58 0.65 0.68 0.63 0.60 0.56 0.47 0.47 0.46 0.50 0.55 0.62 0.73 0.87 1.05 1.28 1.63
1.11 0.96 0.87 0.88 0.96 1.01 0.95 0.86 0.86 0.86 0.83 0.79 0.78 0.82 0.85 0.85 0.80 0.80 0.92 0.98 0.92 0.86 0.86 0.84 0.62 0.53 0.60 0.71 0.81 0.78 0.71 0.69 0.58 0.52 0.49 0.49 0.53 0.59 0.66 0.76 0.92 1.10 1.26
1.19 1.10 0.96 0.90 0.96 1.08 1.10 1.08 1.08 0.99 0.89 0.79 0.71 0.72 0.81 0.94 0.95 0.96 1.00 1.00 1.02 1.06 1.03 0.99 0.82 0.68 0.69 0.77 0.91 0.96 0.88 0.79 0.72 0.62 0.60 0.56 0.56 0.60 0.61 0.63 0.68 0.80 0.97
1.07 1.08 1.04 0.97 0.98 1.18 1.41 1.56 1.45 1.15 0.95 0.84 0.70 0.66 0.76 0.98 1.16 1.32 1.38 1.27 1.28 1.39 1.35 1.27 1.14 0.97 0.86 0.88 0.96 0.96 1.00 0.90 0.84 0.75 0.68 0.61 0.56 0.53 0.52 0.55 0.58 0.62 0.74
1.01 1.02 1.01 0.99 0.97 1.15 1.51 1.72 1.40 1.05 0.92 0.85 0.77 0.68 0.74 0.98 1.12 1.22 1.35 1.34 1.38 1.55 1.63 1.55 1.39 1.18 0.91 0.80 0.84 0.98 1.14 1.24 1.12 0.89 0.78 0.71 0.61 0.57 0.52 0.48 0.52 0.56 0.64
0.97 0.97 0.94 0.92 0.89 0.97 1.31 1.54 1.30 0.99 0.88 0.83 0.79 0.74 0.75 0.85 0.98 1.01 1.09 1.12 1.15 1.32 1.53 1.61 1.55 1.20 1.00 0.89 1.02 1.19 1.21 1.30 1.17 1.06 1.06 1.03 0.78 0.66 0.55 0.54 0.60 0.57 0.63
0.92 0.92 0.91 0.87 0.84 0.89 1.17 1.44 1.26 1.00 0.90 0.84 0.84 0.78 0.71 0.75 0.87 1.02 1.10 1.05 0.98 1.06 1.28 1.46 1.62 1.42 1.21 1.21 1.42 1.60 1.64 1.63 1.40 1.27 1.25 1.37 1.07 0.81 0.68 0.62 0.63 0.57 0.58
0.91 0.88 0.86 0.88 0.83 0.80 1.04 1.43 1.32 1.02 0.94 0.87 0.86 0.81 0.72 0.68 0.85 1.00 0.98 0.94 0.88 0.93 1.05 1.23 1.36 1.39 1.38 1.52 1.78 2.11 2.20 2.13 1.85 1.52 1.38 1.39 1.35 1.20 1.08 0.92 0.79 0.69 0.60
0.85 0.86 0.82 0.82 0.81 0.75 0.89 1.31 1.44 1.07 0.97 0.89 0.89 0.84 0.90 0.87 0.94 0.95 0.87 0.91 0.99 0.91 0.86 0.89 0.93 0.96 1.00 1.12 1.49 1.88 2.13 2.18 1.95 1.84 1.60 1.44 1.48 1.50 1.70 1.44 1.07 0.81 0.67

GEFSMA_prec_meanprecacc_198.txt.gz
Total_Precipitation_Accumulation
0.65 0.66 0.65 0.64 0.64 0.62 0.61 0.58 0.54 0.51 0.48 0.45 0.46 0.44 0.38 0.31 0.25 0.23 0.20 0.23 0.26 0.27 0.36 0.52 0.70 0.98 1.27 1.33 1.38 1.26 1.14 1.07 0.93 0.78 0.74 0.87 0.96 0.92 0.85 0.91 0.83 0.66 0.59
0.69 0.68 0.70 0.65 0.63 0.62 0.60 0.59 0.54 0.51 0.47 0.44 0.41 0.37 0.36 0.33 0.28 0.28 0.27 0.27 0.27 0.27 0.31 0.43 0.58 0.76 1.08 1.32 1.45 1.61 1.45 1.31 1.24 1.03 0.82 0.78 0.87 0.91 0.91 0.90 0.94 0.84 0.68
0.83 0.75 0.72 0.69 0.64 0.65 0.66 0.66 0.62 0.54 0.51 0.45 0.41 0.36 0.32 0.29 0.26 0.27 0.29 0.30 0.31 0.30 0.31 0.38 0.47 0.60 0.80 1.07 1.33 1.63 1.78 1.53 1.45 1.39 1.14 0.88 0.84 0.90 0.95 0.99 1.00 1.04 0.90
0.90 0.90 0.82 0.73 0.67 0.71 0.74 0.75 0.73 0.66 0.56 0.50 0.46 0.40 0.34 0.29 0.25 0.24 0.25 0.27 0.31 0.32 0.33 0.37 0.40 0.48 0.63 0.82 1.08 1.40 1.94 1.89 1.70 1.63 1.58 1.26 0.98 0.92 0.92 0.99 1.05 1.08 1.14
0.95 0.97 0.96 0.88 0.79 0.78 0.76 0.75 0.72 0.69 0.64 0.57 0.52 0.49 0.44 0.37 0.30 0.28 0.25 0.23 0.25 0.30 0.33 0.36 0.39 0.42 0.52 0.63 0.84 1.15 1.76 2.10 2.07 2.00 1.93 1.76 1.37 1.09 0.99 1.00 1.09 1.16 1.23
0.96 0.92 0.97 0.98 0.92 0.86 0.82 0.77 0.73 0.66 0.61 0.59 0.60 0.57 0.50 0.45 0.40 0.35 0.31 0.27 0.24 0.24 0.29 0.34 0.38 0.39 0.43 0.52 0.61 0.81 1.23 1.71 1.98 2.13 2.15 2.18 1.98 1.49 1.18 1.09 1.12 1.25 1.33
1.05 0.97 0.92 0.93 0.94 0.90 0.83 0.79 0.78 0.76 0.72 0.65 0.69 0.73 0.67 0.54 0.46 0.41 0.38 0.34 0.29 0.26 0.26 0.29 0.35 0.40 0.42 0.46 0.49 0.57 0.80 1.21 1.61 1.89 2.04 2.17 2.37 2.16 1.67 1.35 1.24 1.29 1.42
1.03 1.06 0.98 0.91 0.86 0.87 0.88 0.83 0.81 0.80 0.80 0.74 0.71 0.76 0.77 0.73 0.57 0.41 0.36 0.36 0.34 0.31 0.30 0.29 0.31 0.37 0.42 0.42 0.37 0.40 0.53 0.82 1.25 1.67 1.94 2.08 2.30 2.54 2.32 1.82 1.52 1.45 1.53
0.97 1.00 1.01 0.96 0.90 0.84 0.85 0.83 0.79 0.77 0.77 0.73 0.64 0.75 0.83 0.71 0.56 0.46 0.36 0.31 0.32 0.33 0.31 0.31 0.32 0.33 0.38 0.44 0.40 0.35 0.37 0.54 0.88 1.31 1.76 2.05 2.27 2.58 2.75 2.44 1.96 1.70 1.69
0.98 0.95 0.95 0.95 0.97 0.91 0.81 0.78 0.79 0.78 0.80 0.80 0.68 0.60 0.61 0.61 0.63 0.53 0.44 0.39 0.36 0.35 0.34 0.33 0.32 0.32 0.35 0.40 0.42 0.39 0.37 0.43 0.65 1.03 1.48 1.99 2.35 2.61 2.99 2.93 2.59 2.15 1.93
1.05 0.96 0.92 0.91 0.91 0.90 0.83 0.76 0.78 0.80 0.81 0.81 0.76 0.66 0.58 0.50 0.50 0.59 0.49 0.42 0.46 0.43 0.40 0.38 0.36 0.35 0.35 0.37 0.39 0.41 0.44 0.47 0.65 0.90 1.25 1.73 2.42 2.76 3.17 3.37 3.01 2.50 2.15
1.12 1.02 0.91 0.87 0.83 0.81 0.80 0.74 0.68 0.69 0.73 0.73 0.70 0.68 0.68 0.65 0.54 0.55 0.53 0.41 0.41 0.41 0.43 0.46 0.47 0.44 0.42 0.42 0.42 0.50 0.54 0.55 0.68 0.84 0.97 1.34 1.94 2.64 3.12 3.44 3.27 2.75 2.34
1.10 1.01 0.94 0.86 0.80 0.77 0.76 0.75 0.71 0.64 0.64 0.69 0.68 0.63 0.60 0.56 0.52 0.56 0.62 0.53 0.46 0.42 0.45 0.47 0.46 0.49 0.50 0.50 0.50 0.55 0.56 0.59 0.64 0.74 0.78 0.93 1.31 1.92 2.67 3.24 3.52 3.23 2.72
0.97 0.89 0.89 0.85 0.78 0.74 0.75 0.77 0.76 0.69 0.65 0.66 0.64 0.62 0.62 0.56 0.57 0.64 0.72 0.78 0.73 0.53 0.47 0.46 0.41 0.41 0.47 0.49 0.49 0.55 0.49 0.56 0.61 0.66 0.71 0.76 0.93 1.30 1.91 2.61 3.35 3.78 3.45
0.92 0.90 0.88 0.87 0.83 0.82 0.81 0.81 0.80 0.74 0.70 0.67 0.67 0.66 0.68 0.64 0.63 0.65 0.69 0.80 1.01 0.88 0.54 0.40 0.40 0.41 0.47 0.54 0.52 0.49 0.45 0.52 0.57 0.62 0.67 0.71 0.80 1.02 1.38 1.92 2.48 3.34 3.91
0.90 0.90 0.93 0.93 0.88 0.84 0.87 0.89 0.84 0.77 0.77 0.74 0.74 0.75 0.71 0.68 0.70 0.73 0.77 0.77 0.83 0.94 0.75 0.41 0.37 0.39 0.47 0.60 0.68 0.58 0.51 0.58 0.58 0.60 0.63 0.64 0.70 0.85 1.10 1.44 1.84 2.39 3.24
0.92 0.88 0.88 0.94 0.96 0.90 0.84 0.90 0.91 0.86 0.85 0.80 0.77 0.79 0.75 0.72 0.80 0.83 0.88 0.87 0.82 0.85 0.87 0.51 0.41 0.44 0.57 0.67 0.72 0.67 0.65 0.60 0.55 0.59 0.61 0.64 0.67 0.77 0.95 1.18 1.41 1.74 2.35
0.95 0.87 0.84 0.90 0.96 0.95 0.88 0.86 0.88 0.87 0.89 0.86 0.82 0.84 0.83 0.80 0.83 0.87 0.95 0.95 0.87 0.81 0.87 0.72 0.55 0.57 0.66 0.74 0.76 0.73 0.72 0.69 0.58 0.59 0.58 0.65 0.70 0.76 0.88 1.03 1.19 1.40 1.73
1.13 0.97 0.89 0.90 0.99 1.04 0.97 0.88 0.89 0.88 0.85 0.82 0.80 0.85 0.88 0.89 0.85 0.85 0.95 1.01 0.94 0.89 0.90 0.89 0.69 0.61 0.69 0.80 0.92 0.91 0.85 0.83 0.70 0.65 0.63 0.67 0.72 0.72 0.80 0.91 1.06 1.21 1.36
1.20 1.11 0.98 0.92 0.99 1.11 1.14 1.11 1.10 1.01 0.91 0.81 0.73 0.74 0.84 0.97 0.98 1.00 1.04 1.03 1.05 1.09 1.06 1.03 0.88 0.77 0.80 0.87 1.01 1.07 1.04 0.96 0.87 0.75 0.75 0.76 0.76 0.74 0.72 0.74 0.79 0.90 1.07
1.08 1.10 1.07 1.00 1.00 1.21 1.44 1.59 1.48 1.18 0.98 0.86 0.72 0.67 0.77 1.00 1.18 1.35 1.41 1.30 1.30 1.42 1.38 1.31 1.19 1.03 0.93 0.97 1.06 1.05 1.12 1.04 1.01 0.90 0.82 0.81 0.74 0.67 0.63 0.65 0.68 0.71 0.82
1.03 1.04 1.03 1.01 0.99 1.18 1.54 1.75 1.43 1.08 0.94 0.87 0.80 0.70 0.75 0.99 1.13 1.25 1.38 1.36 1.40 1.57 1.66 1.59 1.44 1.23 0.95 0.85 0.91 1.08 1.26 1.39 1.32 1.07 0.91 0.87 0.75 0.69 0.62 0.57 0.62 0.65 0.72
1.00 1.00 0.96 0.94 0.91 0.98 1.33 1.56 1.32 1.01 0.90 0.86 0.81 0.76 0.77 0.87 1.00 1.03 1.11 1.14 1.17 1.35 1.58 1.65 1.59 1.24 1.03 0.93 1.08 1.28 1.34 1.44 1.32 1.21 1.17 1.16 0.90 0.77 0.65 0.65 0.72 0.66 0.71
0.95 0.95 0.94 0.90 0.86 0.90 1.19 1.45 1.28 1.01 0.93 0.87 0.86 0.79 0.73 0.77 0.89 1.04 1.12 1.08 1.01 1.09 1.31 1.50 1.67 1.46 1.25 1.26 1.49 1.69 1.79 1.80 1.56 1.40 1.34 1.48 1.18 0.93 0.80 0.75 0.77 0.69 0.68
0.92 0.90 0.88 0.89 0.84 0.82 1.07 1.45 1.34 1.04 0.96 0.90 0.89 0.83 0.74 0.70 0.87 1.03 1.01 0.98 0.91 0.96 1.09 1.28 1.42 1.46 1.46 1.60 1.88 2.22 2.35 2.31 2.04 1.70 1.50 1.49 1.44 1.30 1.22 1.11 0.99 0.86 0.74
0.86 0.87 0.83 0.84 0.82 0.76 0.91 1.34 1.47 1.09 0.99 0.91 0.91 0.86 0.92 0.89 0.97 0.99 0.91 0.96 1.04 0.95 0.92 0.95 0.99 1.03 1.08 1.21 1.59 2.00 2.25 2.31 2.09 1.99 1.72 1.52 1.55 1.59 1.85 1.62 1.27 0.99 0.83

GEFSMA_prec_meanprecacc_204.txt.gz
Total_Precipitation_Accumulation
0.65 0.66 0.65 0.64 0.64 0.62 0.61 0.59 0.56 0.54 0.50 0.47 0.48 0.47 0.43 0.37 0.30 0.27 0.23 0.25 0.27 0.29 0.39 0.57 0.75 1.03 1.31 1.38 1.43 1.31 1.19 1.12 0.98 0.82 0.78 0.90 0.99 0.96 0.90 0.96 0.88 0.71 0.65
0.69 0.68 0.70 0.65 0.63 0.62 0.61 0.59 0.55 0.52 0.50 0.46 0.43 0.39 0.39 0.38 0.35 0.33 0.31 0.30 0.29 0.29 0.33 0.47 0.63 0.83 1.15 1.38 1.52 1.68 1.50 1.36 1.29 1.08 0.86 0.82 0.90 0.94 0.93 0.93 0.98 0.88 0.73
0.84 0.75 0.72 0.69 0.64 0.65 0.67 0.66 0.62 0.55 0.52 0.48 0.43 0.39 0.35 0.33 0.32 0.34 0.34 0.33 0.34 0.32 0.33 0.40 0.51 0.68 0.89 1.16 1.43 1.72 1.86 1.60 1.51 1.44 1.18 0.92 0.88 0.94 0.98 1.02 1.04 1.08 0.95
0.91 0.90 0.82 0.73 0.67 0.71 0.74 0.76 0.73 0.67 0.57 0.52 0.49 0.43 0.37 0.33 0.30 0.28 0.29 0.31 0.35 0.35 0.34 0.38 0.43 0.54 0.72 0.94 1.20 1.51 2.04 1.98 1.77 1.68 1.63 1.31 1.02 0.96 0.96 1.04 1.10 1.13 1.19
0.95 0.97 0.96 0.88 0.79 0.78 0.76 0.75 0.73 0.70 0.65 0.59 0.54 0.52 0.47 0.40 0.35 0.33 0.29 0.26 0.28 0.33 0.36 0.39 0.42 0.46 0.57 0.74 0.99 1.30 1.90 2.22 2.17 2.07 2.00 1.82 1.42 1.13 1.04 1.05 1.14 1.20 1.28
0.96 0.92 0.97 0.98 0.92 0.86 0.82 0.77 0.73 0.67 0.62 0.61 0.62 0.60 0.53 0.49 0.44 0.40 0.35 0.30 0.26 0.28 0.33 0.38 0.42 0.43 0.48 0.60 0.75 0.98 1.39 1.85 2.11 2.23 2.22 2.25 2.05 1.55 1.24 1.15 1.18 1.30 1.38
1.06 0.98 0.92 0.93 0.94 0.90 0.83 0.80 0.78 0.77 0.73 0.67 0.71 0.76 0.71 0.58 0.50 0.46 0.42 0.38 0.33 0.30 0.30 0.34 0.39 0.44 0.47 0.54 0.61 0.73 0.96 1.35 1.74 2.00 2.11 2.22 2.43 2.23 1.74 1.43 1.32 1.38 1.51
1.04 1.06 0.98 0.91 0.86 0.87 0.88 0.83 0.81 0.81 0.81 0.77 0.74 0.80 0.82 0.79 0.63 0.45 0.40 0.40 0.37 0.36 0.36 0.35 0.36 0.42 0.49 0.51 0.50 0.55 0.67 0.95 1.38 1.80 2.05 2.15 2.36 2.62 2.41 1.92 1.62 1.56 1.64
0.98 1.01 1.01 0.97 0.90 0.84 0.86 0.83 0.80 0.78 0.79 0.75 0.68 0.80 0.87 0.75 0.60 0.49 0.39 0.34 0.35 0.36 0.36 0.36 0.37 0.38 0.45 0.53 0.52 0.48 0.49 0.67 1.02 1.45 1.88 2.16 2.34 2.64 2.83 2.55 2.09 1.83 1.82
0.99 0.95 0.96 0.96 0.98 0.92 0.82 0.79 0.79 0.79 0.81 0.82 0.72 0.64 0.66 0.65 0.67 0.57 0.46 0.41 0.39 0.38 0.36 0.36 0.37 0.37 0.40 0.48 0.53 0.51 0.48 0.54 0.76 1.16 1.61 2.11 2.44 2.68 3.08 3.06 2.73 2.31 2.09
1.06 0.97 0.93 0.92 0.92 0.90 0.83 0.77 0.79 0.81 0.83 0.83 0.79 0.69 0.62 0.54 0.53 0.63 0.52 0.45 0.49 0.46 0.43 0.41 0.40 0.39 0.40 0.44 0.47 0.51 0.56 0.60 0.77 1.01 1.38 1.86 2.54 2.85 3.27 3.50 3.18 2.66 2.33
1.13 1.03 0.92 0.88 0.84 0.81 0.80 0.75 0.70 0.71 0.75 0.75 0.73 0.71 0.71 0.68 0.57 0.58 0.56 0.43 0.43 0.44 0.46 0.49 0.50 0.48 0.46 0.48 0.49 0.59 0.64 0.67 0.82 0.97 1.11 1.46 2.05 2.74 3.20 3.54 3.42 2.93 2.52
1.11 1.03 0.96 0.88 0.81 0.77 0.76 0.75 0.72 0.66 0.66 0.71 0.71 0.66 0.63 0.59 0.54 0.58 0.65 0.57 0.50 0.45 0.48 0.50 0.49 0.52 0.53 0.55 0.56 0.64 0.65 0.69 0.76 0.87 0.93 1.06 1.42 2.02 2.74 3.32 3.63 3.38 2.89
0.98 0.91 0.91 0.88 0.80 0.75 0.76 0.78 0.78 0.71 0.68 0.69 0.67 0.65 0.65 0.58 0.59 0.66 0.75 0.81 0.77 0.56 0.49 0.47 0.43 0.44 0.50 0.53 0.55 0.63 0.59 0.67 0.72 0.78 0.85 0.89 1.04 1.40 1.99 2.69 3.45 3.91 3.60
0.93 0.91 0.90 0.90 0.85 0.83 0.83 0.82 0.83 0.77 0.73 0.72 0.70 0.69 0.70 0.65 0.64 0.66 0.71 0.82 1.04 0.92 0.57 0.41 0.41 0.43 0.51 0.57 0.57 0.54 0.52 0.62 0.67 0.73 0.81 0.85 0.93 1.12 1.46 2.00 2.59 3.46 4.04
0.92 0.91 0.95 0.97 0.91 0.87 0.90 0.92 0.87 0.81 0.81 0.78 0.76 0.76 0.72 0.68 0.71 0.74 0.78 0.78 0.85 0.98 0.78 0.43 0.39 0.41 0.50 0.63 0.71 0.62 0.57 0.69 0.70 0.71 0.73 0.75 0.81 0.96 1.19 1.52 1.95 2.51 3.36
0.92 0.89 0.89 0.96 0.99 0.93 0.86 0.93 0.93 0.89 0.88 0.82 0.79 0.80 0.76 0.73 0.81 0.84 0.89 0.88 0.84 0.87 0.90 0.54 0.43 0.47 0.61 0.71 0.76 0.71 0.70 0.67 0.66 0.71 0.72 0.75 0.78 0.87 1.04 1.26 1.49 1.85 2.48
0.96 0.87 0.85 0.91 0.98 0.98 0.89 0.87 0.89 0.89 0.90 0.87 0.83 0.84 0.84 0.81 0.84 0.88 0.96 0.96 0.88 0.82 0.89 0.75 0.58 0.62 0.70 0.78 0.81 0.78 0.78 0.75 0.66 0.68 0.68 0.77 0.81 0.86 0.97 1.12 1.28 1.50 1.87
1.13 0.98 0.90 0.91 1.00 1.05 0.99 0.89 0.90 0.89 0.86 0.83 0.81 0.86 0.90 0.90 0.86 0.86 0.97 1.02 0.96 0.90 0.92 0.92 0.73 0.67 0.75 0.85 0.97 0.96 0.91 0.89 0.78 0.73 0.72 0.78 0.83 0.83 0.89 1.02 1.18 1.33 1.50
1.20 1.12 0.98 0.92 0.99 1.12 1.14 1.11 1.10 1.02 0.92 0.82 0.74 0.75 0.85 0.98 0.99 1.01 1.06 1.05 1.07 1.11 1.09 1.07 0.92 0.82 0.87 0.94 1.08 1.14 1.10 1.02 0.95 0.84 0.85 0.87 0.89 0.89 0.85 0.85 0.90 1.02 1.20
1.09 1.10 1.07 1.00 1.01 1.21 1.44 1.60 1.49 1.19 0.99 0.87 0.73 0.68 0.78 1.02 1.20 1.36 1.43 1.32 1.33 1.45 1.42 1.36 1.23 1.08 0.99 1.05 1.14 1.13 1.17 1.09 1.07 1.00 0.94 0.94 0.88 0.84 0.79 0.77 0.79 0.83 0.94
1.04 1.04 1.04 1.02 1.00 1.18 1.54 1.76 1.44 1.09 0.95 0.88 0.81 0.71 0.77 1.00 1.14 1.26 1.39 1.38 1.43 1.61 1.71 1.64 1.48 1.27 1.00 0.90 0.98 1.15 1.32 1.45 1.39 1.15 1.04 1.03 0.89 0.85 0.78 0.70 0.74 0.77 0.83
1.02 1.02 0.98 0.96 0.92 0.99 1.34 1.57 1.33 1.03 0.92 0.87 0.82 0.77 0.79 0.89 1.01 1.04 1.13 1.16 1.20 1.37 1.61 1.69 1.63 1.27 1.06 0.97 1.14 1.35 1.41 1.51 1.40 1.30 1.31 1.35 1.06 0.93 0.80 0.77 0.84 0.78 0.82
0.98 0.98 0.97 0.93 0.89 0.92 1.21 1.47 1.30 1.03 0.94 0.89 0.87 0.81 0.75 0.79 0.91 1.06 1.14 1.10 1.03 1.10 1.34 1.53 1.70 1.50 1.28 1.30 1.55 1.77 1.87 1.90 1.67 1.52 1.46 1.63 1.33 1.08 0.95 0.88 0.89 0.80 0.77
0.96 0.94 0.92 0.93 0.88 0.86 1.10 1.48 1.37 1.06 0.99 0.92 0.91 0.85 0.75 0.71 0.88 1.04 1.03 1.01 0.94 0.99 1.11 1.30 1.45 1.51 1.51 1.66 1.94 2.31 2.46 2.44 2.18 1.84 1.60 1.60 1.56 1.42 1.35 1.24 1.11 0.97 0.83
0.89 0.91 0.87 0.87 0.85 0.79 0.94 1.37 1.49 1.12 1.01 0.93 0.92 0.88 0.94 0.91 0.99 1.01 0.93 0.99 1.07 0.98 0.94 0.98 1.02 1.08 1.13 1.27 1.66 2.08 2.36 2.44 2.22 2.11 1.82 1.60 1.64 1.67 1.97 1.77 1.39 1.10 0.94

GEFSMA_prec_meanprecacc_210.txt.gz
Total_Precipitation_Accumulation
0.65 0.66 0.65 0.64 0.64 0.62 0.61 0.59 0.56 0.54 0.50 0.47 0.48 0.47 0.44 0.38 0.31 0.28 0.24 0.26 0.29 0.30 0.40 0.59 0.79 1.07 1.36 1.41 1.46 1.34 1.22 1.16 1.03 0.87 0.84 0.95 1.03 1.00 0.94 0.99 0.91 0.74 0.68
0.69 0.68 0.70 0.65 0.63 0.62 0.61 0.59 0.55 0.52 0.50 0.47 0.43 0.40 0.40 0.39 0.36 0.34 0.32 0.32 0.31 0.30 0.34 0.48 0.67 0.87 1.20 1.42 1.56 1.71 1.54 1.40 1.34 1.13 0.92 0.89 0.96 0.99 0.99 0.97 1.01 0.91 0.76
0.84 0.75 0.72 0.69 0.64 0.65 0.67 0.66 0.62 0.55 0.53 0.48 0.44 0.39 0.36 0.34 0.33 0.35 0.36 0.35 0.36 0.34 0.34 0.41 0.54 0.72 0.95 1.22 1.48 1.76 1.90 1.65 1.56 1.50 1.24 0.98 0.95 1.02 1.06 1.08 1.08 1.11 0.98
0.91 0.91 0.82 0.73 0.67 0.71 0.74 0.76 0.73 0.67 0.57 0.52 0.49 0.44 0.38 0.35 0.32 0.30 0.32 0.34 0.37 0.37 0.36 0.40 0.45 0.58 0.78 1.01 1.27 1.56 2.09 2.04 1.83 1.75 1.69 1.37 1.09 1.03 1.05 1.11 1.15 1.17 1.23
0.95 0.97 0.96 0.89 0.79 0.78 0.77 0.75 0.73 0.70 0.65 0.59 0.54 0.52 0.48 0.42 0.37 0.35 0.31 0.29 0.30 0.36 0.38 0.41 0.44 0.49 0.62 0.82 1.09 1.39 1.96 2.28 2.23 2.15 2.09 1.90 1.50 1.20 1.10 1.13 1.20 1.25 1.33
0.96 0.92 0.98 0.98 0.92 0.86 0.82 0.77 0.73 0.67 0.62 0.61 0.62 0.60 0.54 0.49 0.45 0.41 0.37 0.33 0.29 0.30 0.36 0.40 0.44 0.45 0.52 0.67 0.86 1.11 1.49 1.92 2.17 2.31 2.33 2.36 2.15 1.64 1.32 1.23 1.26 1.38 1.45
1.06 0.98 0.92 0.93 0.95 0.90 0.83 0.80 0.78 0.77 0.73 0.67 0.71 0.77 0.72 0.59 0.51 0.47 0.44 0.41 0.36 0.33 0.33 0.37 0.42 0.47 0.50 0.59 0.70 0.84 1.09 1.46 1.84 2.09 2.21 2.33 2.54 2.33 1.84 1.53 1.41 1.45 1.57
1.04 1.07 0.98 0.91 0.86 0.87 0.88 0.83 0.82 0.81 0.81 0.77 0.74 0.81 0.83 0.80 0.64 0.48 0.43 0.43 0.41 0.40 0.39 0.37 0.39 0.45 0.51 0.53 0.55 0.63 0.76 1.05 1.49 1.90 2.14 2.26 2.48 2.74 2.52 2.02 1.72 1.63 1.69
0.98 1.01 1.02 0.97 0.91 0.85 0.86 0.84 0.80 0.78 0.79 0.75 0.68 0.81 0.89 0.77 0.62 0.52 0.44 0.38 0.37 0.39 0.38 0.39 0.39 0.40 0.46 0.54 0.54 0.51 0.54 0.73 1.10 1.53 1.98 2.26 2.47 2.78 2.96 2.66 2.19 1.92 1.88
0.99 0.96 0.96 0.97 0.99 0.92 0.82 0.79 0.79 0.80 0.82 0.82 0.72 0.64 0.67 0.67 0.70 0.60 0.50 0.46 0.41 0.39 0.38 0.38 0.38 0.38 0.41 0.49 0.55 0.54 0.52 0.58 0.82 1.23 1.68 2.19 2.56 2.84 3.24 3.22 2.86 2.43 2.19
1.06 0.97 0.93 0.93 0.93 0.91 0.84 0.77 0.79 0.81 0.83 0.83 0.80 0.69 0.63 0.55 0.56 0.66 0.55 0.48 0.51 0.47 0.44 0.43 0.43 0.42 0.42 0.45 0.49 0.53 0.59 0.62 0.80 1.06 1.44 1.93 2.64 3.00 3.43 3.67 3.35 2.82 2.46
1.13 1.03 0.92 0.89 0.85 0.82 0.81 0.75 0.70 0.71 0.75 0.75 0.73 0.71 0.72 0.70 0.59 0.61 0.59 0.46 0.45 0.45 0.47 0.51 0.52 0.50 0.48 0.50 0.51 0.63 0.68 0.71 0.85 1.00 1.15 1.51 2.12 2.85 3.34 3.69 3.58 3.10 2.67
1.11 1.03 0.97 0.88 0.82 0.78 0.78 0.76 0.73 0.67 0.67 0.71 0.71 0.67 0.64 0.61 0.57 0.62 0.69 0.60 0.52 0.46 0.49 0.51 0.50 0.53 0.55 0.57 0.59 0.68 0.69 0.73 0.80 0.91 0.96 1.11 1.48 2.10 2.85 3.45 3.76 3.53 3.06
0.99 0.91 0.92 0.88 0.80 0.76 0.78 0.80 0.79 0.72 0.68 0.69 0.67 0.66 0.66 0.61 0.61 0.68 0.78 0.84 0.79 0.58 0.51 0.49 0.44 0.45 0.52 0.56 0.58 0.66 0.62 0.70 0.75 0.82 0.89 0.94 1.09 1.46 2.07 2.80 3.57 4.04 3.75
0.93 0.92 0.91 0.91 0.86 0.84 0.85 0.85 0.85 0.78 0.74 0.72 0.71 0.70 0.71 0.67 0.67 0.68 0.73 0.85 1.06 0.94 0.58 0.42 0.42 0.44 0.51 0.59 0.59 0.56 0.55 0.65 0.70 0.76 0.85 0.90 0.98 1.17 1.52 2.08 2.68 3.58 4.16
0.92 0.92 0.97 0.98 0.93 0.89 0.92 0.94 0.90 0.83 0.82 0.78 0.78 0.79 0.75 0.71 0.73 0.77 0.80 0.80 0.87 0.99 0.79 0.44 0.40 0.42 0.51 0.65 0.73 0.64 0.60 0.72 0.74 0.74 0.77 0.80 0.86 1.01 1.26 1.58 2.02 2.61 3.48
0.93 0.90 0.90 0.98 1.01 0.94 0.88 0.95 0.97 0.92 0.90 0.83 0.80 0.82 0.78 0.75 0.83 0.87 0.92 0.91 0.86 0.89 0.92 0.54 0.43 0.47 0.61 0.72 0.78 0.74 0.72 0.70 0.69 0.74 0.76 0.80 0.83 0.93 1.11 1.34 1.57 1.94 2.59
0.97 0.89 0.86 0.93 1.00 0.99 0.91 0.90 0.93 0.91 0.92 0.89 0.84 0.86 0.85 0.82 0.86 0.89 0.97 0.97 0.89 0.83 0.90 0.75 0.58 0.62 0.71 0.80 0.83 0.81 0.80 0.77 0.68 0.71 0.73 0.82 0.87 0.92 1.04 1.20 1.36 1.58 1.98
1.14 1.00 0.91 0.94 1.02 1.07 1.01 0.91 0.92 0.92 0.88 0.84 0.82 0.87 0.90 0.91 0.86 0.87 0.97 1.02 0.96 0.91 0.93 0.93 0.74 0.67 0.77 0.88 0.99 0.98 0.92 0.91 0.80 0.77 0.77 0.84 0.91 0.91 0.96 1.09 1.27 1.42 1.59
1.21 1.13 1.00 0.95 1.01 1.13 1.16 1.13 1.12 1.04 0.94 0.83 0.74 0.76 0.85 0.98 1.00 1.02 1.06 1.05 1.07 1.12 1.10 1.08 0.94 0.83 0.88 0.97 1.10 1.16 1.12 1.06 0.99 0.89 0.91 0.95 0.98 0.98 0.93 0.92 0.99 1.10 1.27
1.09 1.11 1.08 1.01 1.02 1.22 1.45 1.61 1.50 1.21 1.00 0.88 0.73 0.68 0.78 1.02 1.20 1.37 1.43 1.33 1.34 1.46 1.43 1.38 1.25 1.10 1.01 1.07 1.17 1.16 1.22 1.15 1.13 1.06 1.01 1.01 0.96 0.92 0.87 0.84 0.86 0.92 1.02
1.04 1.05 1.04 1.02 1.01 1.19 1.55 1.77 1.45 1.10 0.96 0.89 0.82 0.72 0.77 1.01 1.15 1.27 1.40 1.40 1.45 1.63 1.73 1.67 1.52 1.31 1.02 0.93 1.00 1.19 1.39 1.52 1.46 1.23 1.13 1.13 0.97 0.93 0.86 0.77 0.82 0.87 0.92
1.03 1.02 0.99 0.97 0.94 1.01 1.35 1.58 1.34 1.04 0.93 0.88 0.83 0.78 0.79 0.89 1.02 1.05 1.14 1.17 1.20 1.39 1.63 1.73 1.67 1.31 1.09 0.99 1.17 1.40 1.48 1.58 1.47 1.38 1.39 1.45 1.16 1.02 0.90 0.87 0.94 0.89 0.93
1.00 0.99 0.98 0.95 0.91 0.94 1.22 1.48 1.31 1.04 0.95 0.89 0.88 0.81 0.75 0.80 0.92 1.08 1.15 1.11 1.03 1.11 1.35 1.54 1.73 1.52 1.31 1.33 1.58 1.83 1.94 1.97 1.74 1.61 1.55 1.74 1.42 1.18 1.04 0.98 1.01 0.93 0.90
0.98 0.96 0.94 0.96 0.90 0.88 1.12 1.49 1.39 1.08 1.00 0.93 0.92 0.86 0.77 0.73 0.90 1.06 1.05 1.02 0.95 0.99 1.12 1.32 1.47 1.53 1.55 1.69 1.98 2.36 2.53 2.51 2.26 1.95 1.72 1.73 1.65 1.49 1.43 1.35 1.24 1.11 0.95
0.91 0.93 0.88 0.89 0.87 0.82 0.97 1.39 1.51 1.13 1.03 0.95 0.94 0.90 0.96 0.93 1.01 1.03 0.95 1.00 1.09 0.99 0.95 0.99 1.04 1.09 1.15 1.30 1.69 2.12 2.43 2.52 2.31 2.23 1.94 1.72 1.73 1.75 2.06 1.87 1.51 1.21 1.03

GEFSMA_prec_meanprecacc_216.txt.gz
Total_Precipitation_Accumulation
0.66 0.66 0.65 0.65 0.65 0.62 0.61 0.59 0.56 0.54 0.51 0.48 0.49 0.48 0.44 0.38 0.32 0.29 0.25 0.27 0.30 0.32 0.43 0.63 0.83 1.11 1.40 1.45 1.50 1.39 1.26 1.21 1.08 0.93 0.90 1.02 1.10 1.07 1.02 1.06 0.97 0.79 0.72
0.69 0.68 0.70 0.65 0.63 0.62 0.61 0.59 0.55 0.52 0.50 0.47 0.43 0.40 0.40 0.39 0.36 0.35 0.33 0.32 0.31 0.30 0.35 0.51 0.70 0.92 1.25 1.47 1.60 1.75 1.58 1.44 1.38 1.18 0.97 0.95 1.03 1.06 1.06 1.06 1.10 1.00 0.84
0.84 0.75 0.72 0.70 0.65 0.65 0.67 0.66 0.62 0.55 0.53 0.48 0.44 0.40 0.36 0.34 0.33 0.36 0.37 0.36 0.37 0.34 0.35 0.44 0.57 0.77 1.01 1.28 1.54 1.81 1.96 1.71 1.63 1.56 1.30 1.05 1.02 1.10 1.14 1.16 1.18 1.22 1.08
0.91 0.91 0.82 0.74 0.68 0.71 0.74 0.76 0.73 0.67 0.57 0.52 0.49 0.44 0.38 0.35 0.32 0.31 0.32 0.34 0.38 0.38 0.37 0.41 0.47 0.61 0.82 1.06 1.33 1.63 2.14 2.09 1.89 1.81 1.75 1.42 1.13 1.09 1.11 1.19 1.26 1.29 1.34
0.95 0.97 0.96 0.89 0.79 0.78 0.77 0.75 0.73 0.70 0.66 0.59 0.54 0.52 0.48 0.42 0.37 0.35 0.32 0.29 0.31 0.37 0.39 0.42 0.46 0.51 0.65 0.85 1.13 1.44 2.01 2.32 2.27 2.20 2.14 1.95 1.53 1.23 1.14 1.18 1.28 1.34 1.43
0.96 0.92 0.98 0.98 0.92 0.86 0.83 0.77 0.73 0.67 0.63 0.61 0.62 0.60 0.54 0.49 0.45 0.42 0.38 0.33 0.30 0.32 0.37 0.42 0.46 0.47 0.54 0.69 0.90 1.17 1.55 1.97 2.22 2.36 2.39 2.41 2.19 1.68 1.37 1.28 1.33 1.47 1.56
1.06 0.98 0.92 0.94 0.95 0.90 0.84 0.80 0.78 0.77 0.73 0.67 0.72 0.77 0.72 0.59 0.52 0.47 0.44 0.42 0.38 0.34 0.35 0.39 0.45 0.50 0.53 0.62 0.73 0.89 1.16 1.54 1.89 2.14 2.26 2.37 2.58 2.38 1.90 1.59 1.48 1.54 1.67
1.05 1.07 0.98 0.91 0.87 0.87 0.88 0.83 0.82 0.81 0.82 0.77 0.75 0.81 0.83 0.80 0.64 0.48 0.43 0.43 0.42 0.41 0.40 0.39 0.41 0.48 0.55 0.57 0.58 0.66 0.82 1.13 1.57 1.98 2.22 2.32 2.52 2.78 2.56 2.06 1.77 1.69 1.77
0.99 1.01 1.02 0.98 0.91 0.85 0.86 0.84 0.80 0.78 0.79 0.75 0.68 0.81 0.89 0.78 0.62 0.52 0.44 0.38 0.38 0.40 0.40 0.41 0.41 0.42 0.49 0.57 0.56 0.54 0.58 0.79 1.19 1.63 2.08 2.34 2.53 2.83 3.01 2.71 2.24 1.98 1.95
0.99 0.96 0.97 0.97 0.99 0.93 0.83 0.79 0.80 0.80 0.82 0.83 0.73 0.65 0.67 0.67 0.70 0.61 0.51 0.46 0.42 0.41 0.40 0.40 0.40 0.40 0.43 0.51 0.57 0.56 0.55 0.63 0.88 1.31 1.77 2.28 2.64 2.91 3.31 3.29 2.94 2.50 2.27
1.06 0.98 0.94 0.94 0.93 0.92 0.84 0.78 0.79 0.81 0.83 0.83 0.80 0.70 0.63 0.55 0.56 0.66 0.56 0.48 0.52 0.48 0.45 0.45 0.45 0.43 0.43 0.46 0.50 0.55 0.61 0.66 0.85 1.12 1.51 2.02 2.73 3.07 3.49 3.73 3.41 2.88 2.52
1.13 1.03 0.92 0.89 0.85 0.82 0.81 0.76 0.70 0.72 0.75 0.76 0.73 0.71 0.72 0.70 0.60 0.62 0.60 0.46 0.46 0.48 0.49 0.52 0.55 0.52 0.49 0.51 0.53 0.64 0.70 0.73 0.89 1.06 1.21 1.58 2.20 2.91 3.39 3.73 3.63 3.14 2.72
1.11 1.03 0.97 0.88 0.82 0.78 0.78 0.77 0.73 0.67 0.67 0.72 0.71 0.67 0.65 0.62 0.57 0.62 0.70 0.62 0.53 0.48 0.51 0.53 0.52 0.56 0.57 0.59 0.61 0.70 0.71 0.75 0.82 0.97 1.02 1.15 1.53 2.16 2.89 3.48 3.80 3.58 3.12
0.99 0.91 0.92 0.88 0.81 0.76 0.78 0.80 0.80 0.73 0.69 0.70 0.68 0.66 0.66 0.61 0.62 0.69 0.79 0.86 0.81 0.59 0.52 0.51 0.47 0.47 0.55 0.58 0.59 0.68 0.63 0.71 0.76 0.86 0.94 0.99 1.14 1.51 2.12 2.83 3.60 4.08 3.80
0.93 0.92 0.91 0.91 0.86 0.85 0.85 0.85 0.85 0.80 0.75 0.73 0.72 0.71 0.72 0.68 0.67 0.68 0.74 0.86 1.07 0.96 0.60 0.44 0.43 0.46 0.54 0.60 0.60 0.57 0.55 0.66 0.72 0.79 0.90 0.94 1.02 1.21 1.57 2.12 2.72 3.62 4.21
0.92 0.92 0.97 0.98 0.93 0.89 0.92 0.94 0.90 0.84 0.84 0.80 0.80 0.81 0.76 0.72 0.74 0.77 0.81 0.81 0.88 1.01 0.81 0.44 0.40 0.42 0.52 0.66 0.75 0.65 0.60 0.74 0.76 0.78 0.80 0.82 0.89 1.04 1.29 1.62 2.06 2.65 3.53
0.93 0.90 0.90 0.98 1.01 0.94 0.88 0.95 0.97 0.93 0.92 0.86 0.83 0.84 0.81 0.77 0.85 0.88 0.92 0.92 0.87 0.90 0.93 0.55 0.44 0.48 0.63 0.74 0.81 0.76 0.74 0.73 0.72 0.76 0.78 0.82 0.85 0.96 1.15 1.38 1.62 1.99 2.63
0.97 0.89 0.86 0.93 1.00 0.99 0.91 0.90 0.93 0.93 0.95 0.92 0.88 0.89 0.88 0.85 0.88 0.91 0.98 0.98 0.90 0.84 0.91 0.76 0.58 0.63 0.72 0.81 0.85 0.82 0.81 0.79 0.70 0.73 0.75 0.84 0.90 0.96 1.09 1.25 1.42 1.63 2.03
1.14 1.00 0.91 0.94 1.02 1.07 1.01 0.92 0.93 0.93 0.90 0.86 0.85 0.90 0.93 0.94 0.89 0.88 0.98 1.03 0.97 0.91 0.93 0.93 0.74 0.68 0.77 0.89 1.00 0.99 0.94 0.92 0.81 0.78 0.79 0.86 0.95 0.96 1.02 1.16 1.34 1.48 1.65
1.21 1.13 1.00 0.95 1.02 1.14 1.17 1.14 1.13 1.05 0.95 0.85 0.77 0.79 0.88 1.01 1.02 1.03 1.07 1.06 1.08 1.12 1.11 1.09 0.94 0.83 0.88 0.97 1.11 1.17 1.13 1.07 1.00 0.91 0.93 0.98 1.03 1.05 1.01 1.01 1.07 1.18 1.34
1.09 1.11 1.08 1.02 1.03 1.23 1.47 1.63 1.51 1.22 1.02 0.90 0.75 0.71 0.80 1.05 1.23 1.39 1.45 1.34 1.35 1.47 1.45 1.39 1.27 1.12 1.02 1.08 1.18 1.17 1.23 1.16 1.15 1.08 1.03 1.04 0.99 0.96 0.94 0.94 0.97 1.01 1.10
1.04 1.05 1.04 1.03 1.02 1.20 1.57 1.79 1.47 1.13 0.98 0.92 0.84 0.74 0.79 1.03 1.17 1.30 1.43 1.41 1.46 1.65 1.76 1.70 1.54 1.33 1.04 0.94 1.02 1.21 1.41 1.55 1.49 1.25 1.15 1.16 1.00 0.97 0.92 0.84 0.93 0.99 1.03
1.03 1.02 0.99 0.97 0.94 1.01 1.36 1.59 1.37 1.06 0.94 0.90 0.86 0.80 0.82 0.92 1.05 1.07 1.17 1.20 1.22 1.40 1.65 1.75 1.70 1.33 1.11 1.01 1.20 1.43 1.50 1.60 1.49 1.41 1.42 1.49 1.20 1.07 0.95 0.95 1.04 1.01 1.05
1.00 1.00 0.99 0.95 0.91 0.95 1.23 1.49 1.32 1.05 0.97 0.91 0.90 0.84 0.78 0.81 0.93 1.09 1.17 1.12 1.04 1.12 1.36 1.56 1.74 1.54 1.33 1.35 1.61 1.86 1.97 1.99 1.76 1.63 1.59 1.78 1.47 1.22 1.09 1.04 1.10 1.03 1.00
0.99 0.96 0.94 0.96 0.91 0.89 1.14 1.50 1.40 1.09 1.01 0.94 0.94 0.88 0.78 0.74 0.92 1.08 1.06 1.04 0.96 1.01 1.14 1.34 1.48 1.55 1.57 1.72 2.01 2.39 2.55 2.53 2.28 1.97 1.76 1.78 1.70 1.54 1.48 1.41 1.32 1.22 1.06
0.91 0.93 0.89 0.89 0.87 0.83 0.99 1.40 1.52 1.14 1.04 0.96 0.95 0.91 0.97 0.95 1.03 1.05 0.97 1.02 1.11 1.00 0.96 1.01 1.06 1.11 1.17 1.31 1.71 2.14 2.46 2.56 2.34 2.26 1.98 1.78 1.79 1.81 2.14 1.95 1.59 1.31 1.14

GEFSMA_prec_meanprecacc_222.txt.gz
Total_Precipitation_Accumulation
0.66 0.66 0.65 0.65 0.65 0.63 0.61 0.60 0.56 0.54 0.51 0.48 0.49 0.48 0.45 0.38 0.32 0.29 0.26 0.28 0.31 0.33 0.44 0.65 0.86 1.15 1.43 1.49 1.53 1.42 1.29 1.23 1.10 0.96 0.93 1.06 1.15 1.12 1.06 1.10 1.01 0.83 0.78
0.69 0.68 0.70 0.66 0.63 0.63 0.61 0.59 0.55 0.52 0.50 0.47 0.43 0.40 0.40 0.39 0.36 0.35 0.33 0.33 0.32 0.31 0.37 0.53 0.73 0.96 1.29 1.52 1.64 1.79 1.61 1.47 1.41 1.21 1.00 0.98 1.07 1.10 1.10 1.11 1.15 1.04 0.89
0.84 0.75 0.72 0.70 0.65 0.65 0.67 0.66 0.63 0.55 0.53 0.48 0.44 0.40 0.36 0.34 0.33 0.36 0.37 0.37 0.37 0.35 0.36 0.45 0.59 0.79 1.03 1.32 1.59 1.86 2.00 1.74 1.66 1.60 1.35 1.09 1.07 1.13 1.18 1.21 1.22 1.25 1.11
0.91 0.91 0.82 0.74 0.68 0.71 0.74 0.76 0.73 0.67 0.57 0.53 0.49 0.44 0.38 0.35 0.32 0.31 0.32 0.35 0.38 0.39 0.38 0.42 0.48 0.62 0.84 1.09 1.37 1.68 2.20 2.13 1.93 1.84 1.79 1.47 1.18 1.13 1.15 1.23 1.29 1.32 1.37
0.95 0.97 0.96 0.89 0.79 0.78 0.77 0.75 0.73 0.70 0.66 0.59 0.54 0.52 0.48 0.42 0.37 0.35 0.32 0.30 0.31 0.37 0.40 0.42 0.46 0.51 0.66 0.88 1.16 1.48 2.06 2.35 2.31 2.23 2.16 1.98 1.57 1.27 1.18 1.22 1.31 1.37 1.46
0.97 0.92 0.98 0.98 0.92 0.86 0.83 0.77 0.73 0.67 0.63 0.61 0.62 0.60 0.54 0.49 0.46 0.42 0.38 0.34 0.30 0.32 0.38 0.42 0.46 0.47 0.55 0.72 0.93 1.20 1.60 2.02 2.26 2.40 2.42 2.45 2.24 1.73 1.42 1.33 1.37 1.50 1.59
1.06 0.98 0.92 0.94 0.95 0.90 0.84 0.80 0.78 0.77 0.73 0.67 0.72 0.77 0.72 0.59 0.52 0.47 0.45 0.42 0.38 0.35 0.36 0.40 0.45 0.50 0.53 0.63 0.75 0.91 1.20 1.59 1.94 2.19 2.31 2.42 2.62 2.42 1.94 1.63 1.53 1.59 1.72
1.05 1.07 0.98 0.91 0.87 0.87 0.88 0.83 0.82 0.81 0.82 0.77 0.75 0.82 0.83 0.81 0.64 0.48 0.43 0.44 0.42 0.41 0.41 0.39 0.41 0.48 0.56 0.59 0.60 0.69 0.85 1.17 1.63 2.04 2.27 2.37 2.57 2.81 2.60 2.10 1.81 1.75 1.82
0.99 1.01 1.02 0.98 0.91 0.85 0.86 0.84 0.80 0.78 0.79 0.76 0.68 0.81 0.89 0.78 0.62 0.52 0.44 0.39 0.38 0.41 0.40 0.41 0.41 0.42 0.49 0.58 0.58 0.56 0.60 0.83 1.25 1.71 2.15 2.41 2.58 2.88 3.05 2.77 2.30 2.04 2.03
1.00 0.96 0.97 0.97 0.99 0.93 0.83 0.79 0.80 0.80 0.82 0.83 0.73 0.65 0.68 0.68 0.71 0.61 0.51 0.46 0.42 0.41 0.40 0.40 0.40 0.40 0.43 0.51 0.58 0.57 0.57 0.66 0.94 1.43 1.88 2.36 2.72 2.99 3.39 3.36 3.01 2.58 2.34
1.07 0.98 0.94 0.94 0.94 0.92 0.84 0.78 0.79 0.82 0.84 0.84 0.80 0.70 0.64 0.56 0.56 0.66 0.56 0.48 0.52 0.49 0.46 0.46 0.45 0.44 0.44 0.47 0.51 0.56 0.64 0.70 0.90 1.24 1.65 2.15 2.85 3.20 3.62 3.84 3.49 2.94 2.57
1.13 1.03 0.93 0.89 0.85 0.82 0.81 0.76 0.71 0.72 0.76 0.76 0.73 0.72 0.73 0.70 0.60 0.62 0.60 0.47 0.46 0.48 0.49 0.53 0.55 0.52 0.50 0.52 0.54 0.66 0.72 0.78 0.94 1.16 1.34 1.70 2.29 3.01 3.50 3.82 3.69 3.20 2.77
1.11 1.03 0.97 0.88 0.82 0.78 0.78 0.77 0.73 0.67 0.68 0.72 0.71 0.67 0.65 0.62 0.57 0.62 0.71 0.63 0.53 0.48 0.52 0.54 0.54 0.57 0.58 0.60 0.62 0.72 0.73 0.77 0.85 1.05 1.12 1.19 1.56 2.20 2.96 3.57 3.88 3.65 3.17
0.99 0.91 0.92 0.89 0.81 0.76 0.78 0.80 0.80 0.73 0.69 0.70 0.68 0.66 0.66 0.61 0.62 0.69 0.80 0.87 0.81 0.60 0.53 0.52 0.49 0.49 0.57 0.59 0.60 0.69 0.65 0.72 0.78 0.90 0.96 1.01 1.16 1.53 2.16 2.91 3.70 4.17 3.88
0.93 0.92 0.91 0.91 0.86 0.85 0.85 0.85 0.85 0.80 0.75 0.73 0.72 0.71 0.72 0.68 0.67 0.69 0.74 0.87 1.08 0.97 0.61 0.45 0.45 0.47 0.55 0.61 0.60 0.57 0.56 0.67 0.73 0.81 0.92 0.96 1.04 1.24 1.60 2.16 2.79 3.70 4.30
0.92 0.92 0.97 0.98 0.93 0.89 0.92 0.95 0.90 0.84 0.84 0.80 0.80 0.81 0.76 0.72 0.74 0.78 0.82 0.82 0.89 1.02 0.82 0.45 0.41 0.43 0.52 0.66 0.75 0.65 0.61 0.74 0.77 0.79 0.81 0.84 0.92 1.09 1.33 1.66 2.10 2.70 3.60
0.94 0.90 0.90 0.98 1.01 0.94 0.88 0.95 0.97 0.94 0.92 0.86 0.83 0.85 0.81 0.77 0.85 0.89 0.93 0.93 0.88 0.91 0.94 0.55 0.44 0.49 0.63 0.74 0.81 0.76 0.74 0.73 0.73 0.77 0.79 0.83 0.87 0.99 1.20 1.42 1.66 2.04 2.69
0.97 0.89 0.86 0.93 1.00 0.99 0.91 0.90 0.93 0.93 0.95 0.92 0.88 0.89 0.88 0.85 0.88 0.92 1.00 0.99 0.91 0.86 0.92 0.77 0.59 0.63 0.72 0.81 0.85 0.83 0.81 0.79 0.70 0.74 0.75 0.86 0.91 0.98 1.13 1.30 1.46 1.68 2.07
1.14 1.00 0.91 0.94 1.02 1.07 1.01 0.92 0.93 0.93 0.90 0.87 0.85 0.90 0.93 0.94 0.89 0.89 0.99 1.04 0.98 0.93 0.95 0.95 0.76 0.69 0.78 0.89 1.00 0.99 0.94 0.92 0.81 0.79 0.80 0.88 0.97 0.98 1.05 1.19 1.38 1.53 1.70
1.21 1.13 1.01 0.96 1.02 1.14 1.18 1.14 1.13 1.05 0.96 0.85 0.77 0.79 0.89 1.02 1.03 1.04 1.09 1.07 1.09 1.14 1.12 1.11 0.96 0.84 0.89 0.98 1.12 1.17 1.14 1.07 1.01 0.91 0.94 0.99 1.05 1.07 1.04 1.04 1.11 1.24 1.41
1.10 1.12 1.09 1.02 1.03 1.24 1.47 1.63 1.51 1.22 1.02 0.91 0.76 0.71 0.81 1.05 1.24 1.41 1.47 1.35 1.36 1.49 1.46 1.41 1.29 1.13 1.04 1.09 1.19 1.18 1.24 1.17 1.15 1.09 1.05 1.05 1.00 0.97 0.96 0.97 1.01 1.08 1.17
1.05 1.06 1.05 1.03 1.02 1.21 1.57 1.80 1.48 1.13 0.99 0.92 0.85 0.75 0.79 1.03 1.18 1.31 1.45 1.44 1.48 1.67 1.78 1.72 1.57 1.35 1.06 0.96 1.03 1.22 1.42 1.57 1.50 1.26 1.17 1.17 1.01 0.98 0.94 0.87 0.97 1.05 1.12
1.03 1.03 0.99 0.98 0.95 1.02 1.36 1.60 1.37 1.06 0.95 0.90 0.86 0.81 0.83 0.93 1.05 1.08 1.18 1.23 1.26 1.44 1.68 1.78 1.73 1.36 1.14 1.03 1.22 1.44 1.52 1.63 1.51 1.43 1.44 1.51 1.22 1.09 0.98 0.99 1.09 1.06 1.12
1.00 1.00 0.99 0.96 0.91 0.95 1.24 1.49 1.32 1.06 0.97 0.91 0.91 0.85 0.78 0.82 0.95 1.10 1.18 1.15 1.08 1.15 1.39 1.59 1.77 1.57 1.36 1.38 1.64 1.88 1.99 2.02 1.78 1.65 1.61 1.81 1.50 1.25 1.13 1.09 1.15 1.08 1.05
0.99 0.96 0.94 0.96 0.91 0.89 1.14 1.51 1.40 1.09 1.01 0.95 0.94 0.89 0.79 0.75 0.93 1.10 1.08 1.06 0.99 1.03 1.16 1.36 1.52 1.58 1.59 1.74 2.03 2.42 2.58 2.57 2.31 1.99 1.78 1.80 1.74 1.58 1.53 1.48 1.38 1.26 1.09
0.92 0.93 0.89 0.89 0.88 0.83 0.99 1.40 1.53 1.14 1.04 0.97 0.96 0.92 0.98 0.96 1.05 1.07 0.98 1.04 1.13 1.02 0.97 1.02 1.07 1.13 1.18 1.33 1.73 2.17 2.49 2.60 2.38 2.29 2.00 1.79 1.81 1.84 2.18 2.01 1.65 1.35 1.17

GEFSMA_prec_meanprecacc_228.txt.gz
Total_Precipitation_Accumulation
0.69 0.69 0.67 0.66 0.66 0.64 0.62 0.60 0.56 0.54 0.51 0.48 0.49 0.48 0.45 0.39 0.33 0.30 0.27 0.29 0.31 0.33 0.45 0.66 0.88 1.17 1.45 1.51 1.55 1.44 1.31 1.25 1.12 0.98 0.96 1.08 1.17 1.13 1.07 1.12 1.03 0.85 0.80
0.73 0.71 0.73 0.67 0.64 0.63 0.61 0.60 0.55 0.52 0.50 0.47 0.44 0.40 0.40 0.41 0.38 0.36 0.34 0.34 0.33 0.32 0.38 0.54 0.75 0.98 1.32 1.55 1.67 1.81 1.63 1.50 1.43 1.24 1.02 1.00 1.09 1.12 1.12 1.13 1.17 1.07 0.92
0.88 0.79 0.75 0.71 0.65 0.66 0.67 0.66 0.63 0.55 0.53 0.48 0.44 0.40 0.36 0.35 0.34 0.37 0.38 0.37 0.38 0.36 0.37 0.46 0.61 0.81 1.05 1.34 1.61 1.88 2.02 1.77 1.69 1.62 1.37 1.11 1.09 1.16 1.21 1.24 1.25 1.29 1.15
0.95 0.95 0.86 0.76 0.69 0.72 0.75 0.76 0.74 0.67 0.58 0.53 0.49 0.44 0.38 0.35 0.33 0.32 0.33 0.35 0.39 0.39 0.39 0.42 0.48 0.62 0.84 1.10 1.39 1.70 2.22 2.15 1.95 1.86 1.81 1.49 1.20 1.16 1.19 1.27 1.33 1.36 1.42
0.97 1.00 1.00 0.91 0.81 0.79 0.77 0.75 0.73 0.70 0.66 0.59 0.54 0.52 0.48 0.42 0.37 0.36 0.32 0.30 0.32 0.37 0.40 0.43 0.46 0.52 0.67 0.88 1.17 1.49 2.08 2.38 2.33 2.25 2.19 2.00 1.59 1.29 1.21 1.25 1.35 1.41 1.51
0.98 0.94 0.99 1.00 0.93 0.87 0.83 0.77 0.73 0.67 0.63 0.61 0.62 0.60 0.54 0.49 0.46 0.42 0.38 0.34 0.31 0.32 0.38 0.43 0.47 0.48 0.55 0.72 0.93 1.21 1.62 2.04 2.28 2.43 2.46 2.49 2.28 1.78 1.47 1.38 1.41 1.56 1.65
1.07 0.99 0.93 0.94 0.95 0.91 0.84 0.80 0.78 0.77 0.73 0.67 0.72 0.77 0.72 0.59 0.52 0.48 0.45 0.42 0.38 0.35 0.36 0.40 0.45 0.51 0.54 0.63 0.75 0.92 1.21 1.60 1.96 2.21 2.34 2.46 2.69 2.50 2.02 1.69 1.58 1.65 1.78
1.06 1.07 0.99 0.91 0.87 0.88 0.88 0.83 0.82 0.81 0.82 0.77 0.75 0.82 0.84 0.81 0.64 0.48 0.43 0.44 0.42 0.41 0.41 0.40 0.42 0.49 0.56 0.59 0.60 0.69 0.86 1.19 1.65 2.06 2.29 2.40 2.62 2.88 2.67 2.17 1.87 1.81 1.89
1.01 1.02 1.03 0.98 0.91 0.85 0.86 0.84 0.80 0.78 0.79 0.76 0.68 0.82 0.89 0.78 0.62 0.52 0.44 0.39 0.38 0.41 0.40 0.41 0.41 0.43 0.49 0.58 0.58 0.56 0.61 0.83 1.27 1.73 2.17 2.44 2.63 2.94 3.12 2.83 2.37 2.12 2.13
1.02 0.97 0.97 0.97 0.99 0.93 0.83 0.79 0.80 0.80 0.82 0.83 0.73 0.65 0.68 0.68 0.71 0.61 0.51 0.46 0.42 0.41 0.40 0.40 0.41 0.40 0.43 0.51 0.58 0.58 0.58 0.67 0.95 1.44 1.91 2.43 2.79 3.05 3.45 3.43 3.08 2.65 2.44
1.07 0.99 0.95 0.94 0.94 0.92 0.84 0.78 0.79 0.82 0.84 0.84 0.80 0.70 0.64 0.56 0.56 0.67 0.56 0.49 0.52 0.49 0.46 0.46 0.45 0.44 0.44 0.47 0.51 0.57 0.65 0.71 0.91 1.26 1.69 2.24 2.95 3.25 3.68 3.90 3.54 2.98 2.62
1.14 1.04 0.93 0.90 0.86 0.83 0.82 0.76 0.71 0.72 0.76 0.76 0.73 0.72 0.73 0.70 0.60 0.62 0.60 0.47 0.46 0.48 0.49 0.53 0.55 0.53 0.51 0.52 0.55 0.67 0.73 0.79 0.95 1.19 1.39 1.78 2.38 3.08 3.54 3.87 3.75 3.25 2.82
1.11 1.04 0.97 0.89 0.82 0.79 0.78 0.77 0.73 0.68 0.68 0.72 0.71 0.67 0.65 0.62 0.58 0.63 0.71 0.63 0.54 0.49 0.52 0.54 0.54 0.57 0.58 0.61 0.63 0.72 0.74 0.78 0.86 1.06 1.14 1.22 1.60 2.24 3.00 3.60 3.92 3.70 3.23
0.99 0.91 0.92 0.89 0.81 0.77 0.79 0.80 0.80 0.73 0.70 0.71 0.68 0.67 0.66 0.61 0.62 0.69 0.80 0.87 0.82 0.60 0.53 0.52 0.49 0.49 0.57 0.60 0.61 0.70 0.65 0.73 0.79 0.91 0.97 1.02 1.18 1.54 2.17 2.92 3.72 4.21 3.93
0.94 0.92 0.92 0.91 0.86 0.85 0.85 0.85 0.86 0.80 0.76 0.73 0.72 0.71 0.72 0.68 0.67 0.69 0.75 0.87 1.09 0.97 0.61 0.45 0.45 0.47 0.55 0.61 0.60 0.57 0.56 0.67 0.73 0.82 0.93 0.97 1.05 1.25 1.61 2.18 2.81 3.73 4.34
0.94 0.93 0.97 0.98 0.93 0.89 0.92 0.95 0.90 0.84 0.84 0.81 0.80 0.81 0.77 0.72 0.75 0.78 0.82 0.82 0.89 1.02 0.82 0.45 0.41 0.43 0.52 0.67 0.75 0.65 0.61 0.75 0.78 0.80 0.82 0.85 0.93 1.10 1.35 1.68 2.12 2.73 3.63
0.95 0.92 0.91 0.98 1.01 0.95 0.88 0.95 0.97 0.94 0.92 0.86 0.83 0.85 0.81 0.77 0.86 0.89 0.94 0.93 0.88 0.91 0.94 0.56 0.45 0.49 0.63 0.74 0.81 0.76 0.75 0.74 0.74 0.78 0.80 0.84 0.89 1.01 1.22 1.44 1.68 2.06 2.72
1.00 0.91 0.87 0.94 1.00 1.00 0.91 0.90 0.93 0.93 0.95 0.92 0.88 0.89 0.88 0.85 0.89 0.92 1.00 1.00 0.91 0.86 0.93 0.77 0.60 0.63 0.72 0.82 0.85 0.83 0.82 0.80 0.72 0.75 0.77 0.87 0.93 1.00 1.15 1.32 1.48 1.70 2.09
1.16 1.02 0.93 0.95 1.02 1.07 1.02 0.92 0.93 0.93 0.90 0.87 0.85 0.90 0.93 0.94 0.90 0.90 1.00 1.05 0.99 0.93 0.96 0.96 0.76 0.69 0.78 0.90 1.01 1.00 0.95 0.93 0.82 0.80 0.81 0.90 0.98 1.00 1.07 1.21 1.40 1.55 1.72
1.23 1.16 1.03 0.97 1.02 1.14 1.18 1.14 1.13 1.05 0.96 0.85 0.77 0.79 0.89 1.02 1.03 1.05 1.09 1.08 1.10 1.14 1.13 1.12 0.97 0.85 0.90 0.99 1.13 1.18 1.15 1.08 1.02 0.92 0.96 1.00 1.06 1.08 1.05 1.06 1.13 1.26 1.43
1.10 1.14 1.11 1.04 1.04 1.24 1.47 1.63 1.51 1.22 1.02 0.91 0.76 0.71 0.81 1.05 1.24 1.41 1.47 1.36 1.37 1.49 1.47 1.42 1.29 1.14 1.04 1.10 1.20 1.19 1.25 1.18 1.16 1.10 1.06 1.06 1.01 0.98 0.97 0.98 1.03 1.10 1.20
1.05 1.07 1.07 1.06 1.03 1.21 1.57 1.80 1.48 1.13 0.99 0.92 0.85 0.75 0.80 1.04 1.18 1.31 1.46 1.44 1.48 1.67 1.78 1.73 1.58 1.36 1.06 0.96 1.04 1.23 1.44 1.58 1.52 1.28 1.18 1.19 1.02 1.00 0.95 0.88 0.99 1.08 1.14
1.04 1.03 1.01 1.00 0.97 1.03 1.36 1.60 1.37 1.07 0.95 0.90 0.86 0.81 0.83 0.93 1.06 1.08 1.19 1.23 1.26 1.44 1.69 1.79 1.74 1.36 1.14 1.04 1.23 1.46 1.54 1.65 1.53 1.44 1.47 1.53 1.23 1.11 1.01 1.02 1.12 1.10 1.15
1.01 1.01 1.00 0.97 0.93 0.97 1.25 1.50 1.32 1.06 0.97 0.91 0.91 0.85 0.79 0.83 0.95 1.11 1.19 1.15 1.08 1.16 1.40 1.60 1.78 1.58 1.37 1.39 1.66 1.90 2.01 2.04 1.80 1.67 1.63 1.83 1.52 1.27 1.16 1.12 1.19 1.11 1.08
1.00 0.97 0.96 0.98 0.93 0.91 1.16 1.51 1.40 1.09 1.01 0.95 0.94 0.89 0.79 0.75 0.94 1.11 1.09 1.06 0.99 1.04 1.17 1.37 1.52 1.59 1.61 1.76 2.05 2.44 2.60 2.59 2.33 2.01 1.80 1.83 1.76 1.60 1.55 1.51 1.42 1.30 1.12
0.92 0.94 0.91 0.91 0.89 0.85 1.01 1.41 1.53 1.14 1.04 0.97 0.96 0.92 0.98 0.96 1.05 1.08 0.99 1.05 1.14 1.03 0.98 1.03 1.08 1.14 1.19 1.34 1.75 2.20 2.53 2.64 2.42 2.33 2.03 1.83 1.84 1.86 2.21 2.04 1.68 1.38 1.19

GEFSMA_prec_meanprecacc_234.txt.gz
Total_Precipitation_Accumulation
0.73 0.72 0.70 0.69 0.69 0.67 0.64 0.61 0.57 0.55 0.51 0.48 0.49 0.49 0.46 0.39 0.33 0.31 0.27 0.29 0.32 0.35 0.47 0.67 0.88 1.17 1.46 1.51 1.56 1.44 1.32 1.26 1.13 1.00 0.97 1.10 1.19 1.15 1.09 1.14 1.05 0.88 0.82
0.76 0.74 0.76 0.70 0.67 0.66 0.65 0.62 0.56 0.53 0.50 0.47 0.44 0.40 0.41 0.41 0.38 0.37 0.34 0.34 0.33 0.33 0.39 0.56 0.76 1.00 1.34 1.56 1.68 1.81 1.64 1.51 1.45 1.25 1.04 1.02 1.10 1.14 1.15 1.16 1.21 1.10 0.95
0.92 0.83 0.78 0.74 0.69 0.69 0.70 0.69 0.65 0.56 0.53 0.48 0.44 0.40 0.36 0.35 0.34 0.37 0.39 0.38 0.38 0.36 0.37 0.46 0.61 0.82 1.06 1.36 1.63 1.90 2.03 1.78 1.69 1.63 1.38 1.13 1.10 1.17 1.23 1.26 1.28 1.32 1.19
1.01 1.00 0.90 0.79 0.72 0.74 0.76 0.78 0.75 0.68 0.58 0.53 0.50 0.44 0.38 0.35 0.33 0.32 0.34 0.37 0.40 0.40 0.40 0.43 0.49 0.63 0.85 1.11 1.40 1.72 2.24 2.17 1.96 1.87 1.82 1.50 1.21 1.17 1.21 1.29 1.35 1.39 1.45
1.06 1.08 1.08 0.99 0.86 0.83 0.79 0.77 0.74 0.71 0.66 0.60 0.55 0.52 0.48 0.42 0.37 0.36 0.33 0.31 0.33 0.39 0.42 0.44 0.48 0.53 0.68 0.89 1.18 1.51 2.10 2.40 2.34 2.26 2.20 2.01 1.60 1.31 1.23 1.28 1.38 1.45 1.55
1.08 1.02 1.08 1.12 1.04 0.94 0.88 0.81 0.75 0.68 0.63 0.61 0.62 0.61 0.54 0.49 0.46 0.42 0.38 0.34 0.31 0.33 0.39 0.43 0.47 0.49 0.56 0.73 0.94 1.22 1.63 2.06 2.30 2.44 2.47 2.51 2.30 1.80 1.50 1.41 1.46 1.60 1.69
1.17 1.06 0.99 1.02 1.04 0.98 0.89 0.84 0.81 0.79 0.74 0.68 0.72 0.77 0.72 0.59 0.52 0.48 0.45 0.43 0.39 0.35 0.36 0.40 0.46 0.51 0.54 0.63 0.76 0.92 1.22 1.62 1.98 2.23 2.36 2.48 2.71 2.52 2.04 1.73 1.63 1.71 1.83
1.13 1.15 1.05 0.97 0.93 0.93 0.92 0.86 0.84 0.83 0.83 0.77 0.75 0.82 0.84 0.81 0.64 0.48 0.44 0.44 0.43 0.42 0.41 0.40 0.42 0.49 0.57 0.59 0.61 0.70 0.88 1.21 1.67 2.08 2.32 2.43 2.65 2.91 2.71 2.21 1.94 1.89 1.98
1.08 1.08 1.09 1.03 0.96 0.89 0.89 0.86 0.81 0.79 0.80 0.76 0.68 0.82 0.90 0.78 0.62 0.52 0.44 0.39 0.38 0.41 0.40 0.41 0.41 0.43 0.50 0.58 0.58 0.57 0.62 0.85 1.29 1.75 2.20 2.49 2.68 2.99 3.17 2.90 2.46 2.22 2.24
1.08 1.04 1.03 1.01 1.02 0.95 0.84 0.81 0.81 0.81 0.83 0.83 0.73 0.65 0.68 0.68 0.71 0.61 0.51 0.46 0.42 0.41 0.40 0.40 0.41 0.40 0.44 0.52 0.58 0.58 0.58 0.68 0.97 1.46 1.93 2.46 2.83 3.10 3.51 3.50 3.20 2.76 2.53
1.13 1.05 1.01 0.98 0.96 0.94 0.85 0.79 0.80 0.82 0.84 0.84 0.80 0.70 0.64 0.56 0.56 0.67 0.56 0.49 0.52 0.49 0.46 0.46 0.45 0.44 0.44 0.48 0.52 0.58 0.65 0.73 0.93 1.28 1.71 2.26 2.98 3.30 3.73 3.96 3.62 3.05 2.69
1.20 1.10 1.00 0.95 0.89 0.85 0.83 0.76 0.71 0.73 0.76 0.76 0.74 0.72 0.73 0.70 0.60 0.62 0.60 0.47 0.46 0.48 0.49 0.53 0.55 0.53 0.51 0.52 0.55 0.68 0.74 0.80 0.96 1.20 1.40 1.80 2.42 3.12 3.59 3.93 3.80 3.31 2.89
1.18 1.11 1.03 0.93 0.86 0.81 0.79 0.78 0.74 0.68 0.68 0.72 0.71 0.67 0.65 0.62 0.58 0.63 0.71 0.63 0.54 0.49 0.52 0.54 0.54 0.57 0.58 0.61 0.63 0.73 0.74 0.78 0.86 1.07 1.14 1.24 1.62 2.27 3.03 3.63 3.96 3.74 3.28
1.04 0.99 1.00 0.94 0.84 0.79 0.80 0.81 0.81 0.74 0.70 0.71 0.68 0.67 0.66 0.61 0.62 0.70 0.80 0.88 0.82 0.60 0.53 0.52 0.49 0.50 0.57 0.60 0.61 0.70 0.65 0.73 0.80 0.92 0.98 1.03 1.19 1.56 2.20 2.95 3.75 4.24 3.97
0.99 0.99 1.01 1.00 0.91 0.88 0.87 0.87 0.87 0.80 0.76 0.74 0.73 0.71 0.73 0.68 0.68 0.69 0.75 0.87 1.09 0.98 0.61 0.45 0.45 0.47 0.55 0.61 0.61 0.57 0.56 0.67 0.74 0.82 0.93 0.98 1.07 1.27 1.63 2.21 2.84 3.76 4.37
0.97 0.99 1.04 1.07 1.01 0.94 0.95 0.97 0.92 0.86 0.85 0.81 0.80 0.81 0.77 0.73 0.75 0.78 0.82 0.83 0.90 1.03 0.82 0.45 0.41 0.43 0.52 0.67 0.75 0.65 0.61 0.75 0.78 0.80 0.82 0.86 0.94 1.12 1.37 1.71 2.16 2.76 3.66
0.97 0.94 0.96 1.04 1.08 1.02 0.93 0.99 0.99 0.95 0.93 0.86 0.83 0.85 0.81 0.78 0.86 0.89 0.94 0.93 0.88 0.91 0.94 0.56 0.45 0.49 0.63 0.74 0.81 0.76 0.75 0.74 0.74 0.78 0.80 0.85 0.90 1.03 1.24 1.47 1.71 2.10 2.76
1.01 0.93 0.89 0.97 1.06 1.05 0.96 0.94 0.95 0.94 0.96 0.92 0.88 0.89 0.88 0.85 0.89 0.92 1.00 1.00 0.92 0.86 0.93 0.78 0.60 0.63 0.73 0.82 0.85 0.83 0.82 0.80 0.72 0.75 0.77 0.88 0.94 1.02 1.17 1.34 1.49 1.72 2.12
1.18 1.03 0.95 0.97 1.05 1.11 1.05 0.94 0.95 0.94 0.91 0.87 0.85 0.90 0.93 0.94 0.90 0.90 1.00 1.05 0.99 0.93 0.96 0.96 0.76 0.69 0.78 0.90 1.01 1.00 0.95 0.93 0.82 0.80 0.82 0.90 0.99 1.02 1.08 1.23 1.41 1.57 1.75
1.24 1.17 1.03 0.98 1.04 1.16 1.20 1.17 1.15 1.06 0.97 0.86 0.77 0.79 0.89 1.02 1.04 1.05 1.09 1.08 1.10 1.15 1.14 1.12 0.97 0.85 0.90 0.99 1.13 1.18 1.15 1.09 1.02 0.92 0.96 1.01 1.07 1.10 1.07 1.08 1.15 1.29 1.46
1.11 1.14 1.12 1.04 1.05 1.25 1.48 1.64 1.54 1.24 1.03 0.92 0.76 0.71 0.81 1.05 1.24 1.42 1.47 1.36 1.37 1.50 1.47 1.42 1.30 1.14 1.05 1.10 1.20 1.19 1.26 1.18 1.16 1.11 1.06 1.07 1.02 1.00 0.98 1.00 1.05 1.12 1.22
1.07 1.08 1.09 1.07 1.05 1.22 1.58 1.81 1.49 1.15 1.00 0.93 0.85 0.75 0.80 1.04 1.18 1.31 1.46 1.45 1.49 1.68 1.79 1.74 1.58 1.37 1.07 0.97 1.05 1.24 1.44 1.59 1.52 1.28 1.18 1.19 1.03 1.01 0.97 0.91 1.02 1.11 1.16
1.06 1.05 1.02 1.01 0.98 1.03 1.37 1.60 1.37 1.07 0.96 0.91 0.86 0.81 0.83 0.93 1.06 1.08 1.19 1.23 1.26 1.45 1.70 1.80 1.75 1.37 1.15 1.05 1.24 1.47 1.54 1.66 1.54 1.45 1.47 1.53 1.23 1.12 1.02 1.03 1.14 1.12 1.17
1.04 1.03 1.02 0.98 0.94 0.98 1.25 1.50 1.33 1.06 0.97 0.92 0.91 0.85 0.79 0.83 0.95 1.11 1.19 1.16 1.08 1.16 1.40 1.60 1.79 1.59 1.38 1.40 1.67 1.92 2.02 2.05 1.80 1.67 1.63 1.84 1.52 1.28 1.17 1.13 1.20 1.12 1.10
1.03 1.00 0.98 0.99 0.93 0.92 1.17 1.52 1.40 1.09 1.01 0.95 0.95 0.89 0.79 0.75 0.94 1.11 1.09 1.07 1.00 1.04 1.17 1.38 1.53 1.60 1.62 1.77 2.06 2.45 2.62 2.60 2.34 2.02 1.81 1.84 1.77 1.61 1.56 1.51 1.43 1.31 1.13
0.95 0.97 0.93 0.93 0.90 0.86 1.02 1.42 1.54 1.15 1.04 0.97 0.96 0.92 0.98 0.96 1.06 1.08 1.00 1.06 1.15 1.04 0.99 1.04 1.09 1.14 1.20 1.35 1.76 2.20 2.55 2.66 2.44 2.35 2.04 1.84 1.85 1.87 2.23 2.04 1.68 1.39 1.21

GEFSMA_prec_meanprecacc_240.txt.gz
Total_Precipitation_Accumulation
0.75 0.76 0.74 0.74 0.73 0.69 0.67 0.66 0.62 0.58 0.54 0.50 0.50 0.50 0.47 0.40 0.33 0.31 0.27 0.29 0.32 0.36 0.48 0.68 0.89 1.18 1.46 1.52 1.56 1.45 1.33 1.27 1.14 1.00 0.98 1.11 1.20 1.16 1.10 1.16 1.07 0.90 0.85
0.79 0.78 0.81 0.75 0.72 0.70 0.68 0.66 0.61 0.56 0.53 0.48 0.45 0.41 0.41 0.42 0.39 0.37 0.35 0.34 0.33 0.33 0.40 0.57 0.77 1.00 1.34 1.57 1.68 1.82 1.64 1.51 1.45 1.25 1.05 1.03 1.11 1.15 1.16 1.17 1.22 1.13 0.98
0.96 0.87 0.84 0.81 0.74 0.72 0.73 0.73 0.70 0.61 0.57 0.50 0.45 0.40 0.37 0.36 0.35 0.38 0.39 0.38 0.38 0.36 0.38 0.48 0.63 0.83 1.08 1.37 1.64 1.90 2.03 1.78 1.70 1.64 1.39 1.13 1.11 1.19 1.24 1.28 1.30 1.34 1.22
1.05 1.05 0.95 0.87 0.79 0.79 0.80 0.81 0.79 0.73 0.63 0.56 0.51 0.45 0.39 0.36 0.33 0.33 0.35 0.37 0.40 0.40 0.40 0.44 0.50 0.64 0.87 1.12 1.41 1.73 2.25 2.19 1.97 1.88 1.83 1.51 1.23 1.18 1.22 1.31 1.37 1.40 1.47
1.13 1.11 1.12 1.05 0.93 0.89 0.84 0.80 0.77 0.75 0.70 0.64 0.58 0.54 0.49 0.42 0.38 0.36 0.33 0.31 0.33 0.39 0.42 0.45 0.49 0.54 0.69 0.90 1.19 1.52 2.11 2.41 2.35 2.27 2.21 2.02 1.62 1.33 1.25 1.29 1.40 1.47 1.57
1.19 1.11 1.13 1.17 1.10 1.02 0.95 0.85 0.78 0.71 0.66 0.64 0.65 0.63 0.55 0.50 0.46 0.42 0.39 0.35 0.31 0.33 0.39 0.44 0.49 0.50 0.58 0.74 0.96 1.24 1.65 2.07 2.31 2.45 2.48 2.52 2.32 1.82 1.52 1.44 1.49 1.63 1.73
1.23 1.22 1.10 1.08 1.09 1.05 0.98 0.91 0.87 0.84 0.77 0.70 0.74 0.79 0.74 0.61 0.53 0.48 0.45 0.43 0.39 0.35 0.36 0.40 0.46 0.52 0.56 0.65 0.77 0.95 1.25 1.65 2.00 2.25 2.37 2.51 2.74 2.55 2.08 1.77 1.68 1.76 1.89
1.16 1.25 1.24 1.08 0.99 0.98 0.97 0.92 0.90 0.89 0.88 0.80 0.77 0.83 0.85 0.83 0.66 0.48 0.44 0.44 0.43 0.42 0.41 0.40 0.42 0.49 0.57 0.60 0.62 0.71 0.89 1.23 1.69 2.10 2.34 2.46 2.68 2.95 2.74 2.26 1.99 1.93 2.03
1.10 1.12 1.22 1.21 1.07 0.95 0.93 0.89 0.86 0.84 0.85 0.80 0.71 0.83 0.91 0.79 0.64 0.53 0.45 0.39 0.39 0.41 0.41 0.41 0.41 0.43 0.50 0.59 0.59 0.58 0.63 0.87 1.31 1.78 2.23 2.53 2.72 3.03 3.20 2.94 2.51 2.27 2.29
1.11 1.08 1.09 1.16 1.18 1.06 0.90 0.84 0.83 0.84 0.87 0.87 0.76 0.67 0.69 0.68 0.72 0.62 0.51 0.46 0.42 0.41 0.40 0.40 0.41 0.40 0.44 0.52 0.58 0.58 0.59 0.69 0.99 1.48 1.96 2.50 2.88 3.15 3.56 3.54 3.24 2.80 2.58
1.17 1.09 1.07 1.08 1.09 1.06 0.94 0.84 0.83 0.85 0.87 0.87 0.83 0.72 0.65 0.56 0.57 0.67 0.57 0.49 0.52 0.49 0.46 0.46 0.46 0.44 0.44 0.48 0.52 0.58 0.66 0.73 0.94 1.30 1.74 2.30 3.03 3.35 3.77 4.00 3.65 3.09 2.73
1.25 1.14 1.04 1.03 0.99 0.96 0.92 0.84 0.76 0.75 0.77 0.78 0.75 0.74 0.74 0.71 0.61 0.62 0.60 0.47 0.46 0.48 0.49 0.53 0.55 0.53 0.51 0.52 0.55 0.68 0.74 0.80 0.96 1.20 1.42 1.82 2.44 3.14 3.62 3.95 3.83 3.34 2.92
1.23 1.15 1.07 1.01 0.96 0.91 0.88 0.85 0.80 0.72 0.69 0.73 0.72 0.68 0.66 0.63 0.58 0.63 0.72 0.63 0.54 0.49 0.52 0.54 0.54 0.58 0.58 0.61 0.63 0.73 0.75 0.79 0.87 1.07 1.15 1.25 1.63 2.29 3.04 3.65 3.98 3.77 3.31
1.10 1.04 1.05 1.00 0.93 0.91 0.91 0.89 0.86 0.78 0.72 0.71 0.69 0.67 0.67 0.62 0.63 0.70 0.80 0.88 0.82 0.60 0.53 0.53 0.49 0.50 0.57 0.60 0.61 0.70 0.66 0.74 0.81 0.93 0.99 1.04 1.20 1.57 2.21 2.96 3.77 4.26 3.99
1.05 1.05 1.06 1.07 1.00 0.99 1.00 0.97 0.93 0.85 0.79 0.75 0.73 0.72 0.73 0.69 0.68 0.69 0.75 0.88 1.10 0.98 0.62 0.45 0.45 0.48 0.55 0.61 0.61 0.58 0.56 0.68 0.74 0.82 0.94 0.99 1.07 1.27 1.64 2.22 2.85 3.78 4.39
1.01 1.03 1.09 1.13 1.09 1.03 1.07 1.08 1.00 0.91 0.88 0.83 0.81 0.82 0.77 0.73 0.75 0.78 0.83 0.83 0.90 1.03 0.83 0.45 0.42 0.43 0.52 0.67 0.75 0.65 0.61 0.75 0.78 0.80 0.83 0.86 0.95 1.12 1.38 1.72 2.17 2.78 3.68
1.01 0.98 1.00 1.09 1.16 1.11 1.04 1.10 1.08 1.01 0.97 0.89 0.85 0.86 0.82 0.78 0.86 0.89 0.94 0.93 0.88 0.92 0.95 0.56 0.45 0.49 0.63 0.74 0.81 0.76 0.75 0.74 0.74 0.78 0.80 0.86 0.91 1.03 1.24 1.48 1.72 2.11 2.77
1.05 0.96 0.93 1.01 1.11 1.12 1.06 1.07 1.07 1.02 1.01 0.98 0.91 0.91 0.89 0.86 0.89 0.92 1.00 1.00 0.92 0.86 0.93 0.78 0.60 0.63 0.73 0.82 0.85 0.83 0.82 0.80 0.72 0.75 0.77 0.88 0.95 1.02 1.18 1.35 1.50 1.73 2.13
1.21 1.06 0.98 1.00 1.09 1.15 1.10 1.03 1.07 1.06 0.98 0.92 0.90 0.93 0.95 0.95 0.90 0.90 1.00 1.05 0.99 0.94 0.97 0.97 0.77 0.69 0.78 0.90 1.01 1.00 0.95 0.93 0.82 0.80 0.82 0.90 0.99 1.02 1.09 1.23 1.43 1.58 1.76
1.26 1.19 1.06 1.01 1.07 1.19 1.22 1.20 1.21 1.16 1.07 0.93 0.82 0.82 0.91 1.04 1.04 1.05 1.10 1.08 1.11 1.15 1.14 1.13 0.97 0.86 0.90 0.99 1.13 1.18 1.15 1.09 1.02 0.92 0.96 1.01 1.07 1.10 1.07 1.08 1.16 1.29 1.47
1.13 1.16 1.15 1.07 1.07 1.27 1.50 1.66 1.55 1.28 1.10 1.00 0.83 0.75 0.84 1.08 1.26 1.43 1.48 1.37 1.37 1.50 1.48 1.43 1.30 1.15 1.05 1.10 1.21 1.20 1.26 1.18 1.16 1.11 1.06 1.07 1.02 1.00 0.98 1.00 1.05 1.13 1.23
1.08 1.10 1.11 1.10 1.07 1.24 1.60 1.82 1.50 1.16 1.03 0.97 0.91 0.80 0.84 1.07 1.22 1.34 1.48 1.46 1.50 1.68 1.79 1.74 1.59 1.37 1.07 0.97 1.05 1.25 1.45 1.59 1.52 1.28 1.18 1.19 1.03 1.01 0.97 0.91 1.03 1.12 1.18
1.07 1.06 1.04 1.04 1.01 1.06 1.39 1.62 1.38 1.08 0.97 0.92 0.89 0.85 0.87 0.97 1.09 1.11 1.21 1.24 1.27 1.45 1.70 1.81 1.76 1.38 1.16 1.06 1.26 1.48 1.55 1.66 1.54 1.45 1.47 1.53 1.23 1.12 1.02 1.03 1.15 1.13 1.18
1.05 1.04 1.03 1.00 0.97 1.00 1.27 1.52 1.34 1.07 0.98 0.93 0.93 0.87 0.81 0.86 0.98 1.13 1.21 1.16 1.09 1.16 1.40 1.60 1.79 1.60 1.39 1.41 1.68 1.93 2.04 2.06 1.80 1.67 1.63 1.84 1.52 1.28 1.17 1.13 1.20 1.13 1.11
1.04 1.02 0.99 1.00 0.95 0.94 1.19 1.54 1.42 1.10 1.02 0.96 0.96 0.90 0.81 0.77 0.96 1.13 1.10 1.07 1.00 1.04 1.17 1.38 1.54 1.61 1.62 1.77 2.07 2.46 2.63 2.62 2.35 2.02 1.81 1.84 1.77 1.61 1.56 1.52 1.43 1.32 1.14
0.97 0.99 0.94 0.94 0.92 0.87 1.04 1.44 1.55 1.15 1.05 0.98 0.97 0.93 1.00 0.98 1.07 1.09 1.00 1.06 1.16 1.04 0.99 1.04 1.09 1.14 1.20 1.35 1.76 2.21 2.56 2.69 2.46 2.36 2.05 1.85 1.85 1.88 2.24 2.05 1.69 1.40 1.22

GEFSMA_prec_meanprecacc_246.txt.gz
Total_Precipitation_Accumulation
0.79 0.79 0.77 0.76 0.78 0.77 0.75 0.75 0.71 0.66 0.59 0.53 0.52 0.52 0.49 0.42 0.35 0.34 0.29 0.32 0.33 0.37 0.49 0.69 0.89 1.18 1.47 1.52 1.57 1.45 1.33 1.27 1.14 1.01 0.99 1.12 1.20 1.17 1.11 1.17 1.08 0.91 0.87
0.85 0.82 0.84 0.77 0.74 0.75 0.73 0.72 0.68 0.65 0.62 0.53 0.47 0.43 0.44 0.44 0.41 0.40 0.37 0.35 0.34 0.34 0.42 0.59 0.78 1.01 1.35 1.58 1.69 1.83 1.65 1.52 1.46 1.26 1.05 1.03 1.12 1.16 1.17 1.18 1.23 1.14 0.99
1.05 0.93 0.88 0.84 0.77 0.76 0.78 0.78 0.76 0.67 0.64 0.56 0.48 0.43 0.39 0.38 0.37 0.40 0.42 0.39 0.39 0.36 0.38 0.49 0.64 0.85 1.09 1.38 1.64 1.91 2.04 1.79 1.71 1.65 1.40 1.14 1.12 1.20 1.25 1.29 1.31 1.36 1.23
1.16 1.12 1.00 0.90 0.82 0.82 0.83 0.84 0.83 0.78 0.68 0.62 0.56 0.49 0.42 0.38 0.36 0.35 0.37 0.38 0.41 0.41 0.41 0.45 0.50 0.66 0.89 1.14 1.41 1.73 2.25 2.19 1.98 1.89 1.84 1.52 1.24 1.20 1.24 1.32 1.38 1.42 1.48
1.24 1.23 1.19 1.09 0.97 0.92 0.87 0.83 0.80 0.79 0.74 0.69 0.65 0.60 0.52 0.45 0.40 0.39 0.35 0.32 0.34 0.40 0.43 0.45 0.49 0.54 0.70 0.92 1.20 1.53 2.12 2.42 2.36 2.28 2.22 2.03 1.63 1.34 1.27 1.32 1.42 1.49 1.59
1.27 1.23 1.23 1.23 1.15 1.07 0.98 0.88 0.82 0.75 0.70 0.68 0.71 0.71 0.62 0.53 0.48 0.44 0.40 0.35 0.32 0.33 0.39 0.44 0.49 0.51 0.58 0.75 0.96 1.25 1.66 2.09 2.32 2.46 2.49 2.53 2.33 1.84 1.54 1.46 1.52 1.66 1.76
1.27 1.29 1.21 1.18 1.17 1.11 1.03 0.95 0.90 0.87 0.81 0.74 0.79 0.87 0.83 0.66 0.55 0.50 0.46 0.44 0.39 0.36 0.37 0.41 0.47 0.53 0.56 0.65 0.78 0.95 1.26 1.66 2.02 2.27 2.39 2.52 2.76 2.57 2.10 1.80 1.72 1.80 1.93
1.20 1.29 1.31 1.19 1.12 1.07 1.04 0.98 0.94 0.92 0.92 0.85 0.82 0.88 0.92 0.90 0.70 0.51 0.45 0.45 0.43 0.42 0.41 0.40 0.42 0.49 0.57 0.60 0.62 0.72 0.90 1.24 1.72 2.15 2.39 2.51 2.71 2.98 2.77 2.29 2.03 1.98 2.07
1.14 1.16 1.27 1.27 1.17 1.09 1.03 0.96 0.91 0.87 0.88 0.84 0.76 0.87 0.95 0.84 0.67 0.55 0.46 0.40 0.39 0.41 0.41 0.41 0.42 0.43 0.50 0.59 0.59 0.58 0.63 0.87 1.32 1.80 2.27 2.57 2.77 3.07 3.25 2.98 2.55 2.30 2.33
1.13 1.10 1.11 1.19 1.23 1.16 1.04 0.94 0.90 0.89 0.90 0.90 0.80 0.72 0.73 0.71 0.73 0.63 0.52 0.47 0.43 0.41 0.41 0.41 0.41 0.41 0.44 0.52 0.58 0.58 0.59 0.69 0.99 1.50 1.98 2.53 2.92 3.20 3.61 3.60 3.31 2.86 2.63
1.20 1.11 1.09 1.10 1.13 1.12 1.04 0.98 0.93 0.90 0.91 0.90 0.86 0.76 0.69 0.60 0.59 0.68 0.58 0.50 0.53 0.49 0.46 0.46 0.46 0.45 0.44 0.48 0.52 0.58 0.66 0.73 0.94 1.30 1.75 2.32 3.06 3.39 3.82 4.05 3.70 3.14 2.77
1.29 1.17 1.07 1.06 1.03 0.99 0.97 0.94 0.91 0.84 0.81 0.81 0.78 0.76 0.77 0.75 0.64 0.64 0.62 0.48 0.47 0.49 0.50 0.53 0.56 0.53 0.51 0.53 0.55 0.68 0.74 0.81 0.97 1.21 1.43 1.84 2.48 3.18 3.65 3.99 3.86 3.37 2.95
1.27 1.19 1.11 1.05 1.00 0.95 0.92 0.90 0.89 0.86 0.78 0.76 0.74 0.70 0.68 0.65 0.60 0.65 0.73 0.65 0.55 0.49 0.52 0.54 0.54 0.58 0.59 0.61 0.63 0.73 0.75 0.79 0.87 1.08 1.16 1.25 1.65 2.31 3.07 3.68 4.01 3.79 3.33
1.13 1.08 1.09 1.04 0.97 0.95 0.95 0.93 0.90 0.86 0.85 0.79 0.71 0.68 0.68 0.63 0.64 0.71 0.82 0.89 0.83 0.61 0.53 0.53 0.49 0.50 0.57 0.60 0.61 0.70 0.66 0.74 0.81 0.93 1.00 1.04 1.20 1.58 2.22 2.98 3.79 4.28 4.01
1.08 1.08 1.11 1.11 1.03 1.03 1.05 1.01 0.96 0.88 0.85 0.85 0.79 0.73 0.74 0.70 0.69 0.70 0.76 0.88 1.11 0.99 0.62 0.45 0.45 0.48 0.55 0.62 0.61 0.58 0.57 0.68 0.74 0.83 0.94 0.99 1.08 1.28 1.65 2.23 2.86 3.79 4.40
1.03 1.06 1.13 1.18 1.14 1.08 1.12 1.13 1.04 0.93 0.91 0.88 0.88 0.86 0.79 0.74 0.75 0.79 0.83 0.83 0.91 1.04 0.83 0.46 0.42 0.44 0.52 0.67 0.76 0.65 0.61 0.76 0.79 0.81 0.83 0.87 0.95 1.13 1.39 1.72 2.18 2.78 3.69
1.03 1.01 1.04 1.14 1.21 1.16 1.09 1.15 1.12 1.04 1.01 0.93 0.88 0.91 0.85 0.79 0.87 0.90 0.94 0.94 0.89 0.92 0.95 0.56 0.45 0.49 0.63 0.74 0.81 0.76 0.75 0.74 0.75 0.79 0.81 0.86 0.91 1.04 1.25 1.48 1.73 2.12 2.78
1.08 0.99 0.97 1.06 1.16 1.17 1.11 1.12 1.11 1.06 1.04 1.00 0.94 0.93 0.92 0.88 0.91 0.93 1.01 1.01 0.92 0.87 0.94 0.78 0.60 0.64 0.73 0.82 0.85 0.83 0.82 0.80 0.72 0.76 0.78 0.88 0.95 1.03 1.18 1.35 1.51 1.73 2.13
1.23 1.09 1.01 1.04 1.14 1.20 1.14 1.07 1.12 1.10 1.01 0.94 0.92 0.95 0.96 0.96 0.92 0.91 1.00 1.06 1.00 0.94 0.98 0.97 0.77 0.69 0.78 0.90 1.01 1.00 0.95 0.93 0.83 0.80 0.82 0.90 0.99 1.02 1.09 1.24 1.43 1.58 1.76
1.28 1.22 1.09 1.04 1.11 1.24 1.26 1.23 1.24 1.19 1.10 0.95 0.83 0.84 0.93 1.05 1.05 1.06 1.10 1.09 1.11 1.16 1.15 1.13 0.98 0.86 0.90 0.99 1.13 1.18 1.15 1.09 1.02 0.92 0.96 1.01 1.07 1.10 1.07 1.08 1.16 1.30 1.47
1.15 1.19 1.18 1.10 1.11 1.31 1.54 1.69 1.58 1.30 1.12 1.02 0.84 0.76 0.85 1.09 1.28 1.44 1.49 1.37 1.38 1.51 1.49 1.44 1.31 1.15 1.05 1.10 1.21 1.20 1.26 1.18 1.16 1.11 1.06 1.07 1.02 1.00 0.98 1.00 1.06 1.13 1.23
1.09 1.12 1.14 1.13 1.11 1.28 1.64 1.86 1.52 1.18 1.04 0.99 0.92 0.81 0.84 1.08 1.23 1.36 1.49 1.47 1.51 1.69 1.81 1.76 1.60 1.38 1.07 0.97 1.06 1.25 1.46 1.60 1.52 1.28 1.18 1.19 1.03 1.01 0.97 0.91 1.03 1.12 1.18
1.09 1.08 1.07 1.07 1.04 1.09 1.43 1.65 1.41 1.09 0.98 0.93 0.90 0.86 0.88 0.98 1.10 1.13 1.23 1.26 1.29 1.46 1.71 1.82 1.77 1.39 1.17 1.07 1.27 1.50 1.56 1.67 1.55 1.45 1.47 1.53 1.24 1.12 1.02 1.03 1.15 1.13 1.18
1.07 1.06 1.06 1.03 1.00 1.04 1.31 1.54 1.36 1.08 1.00 0.94 0.93 0.88 0.82 0.86 0.99 1.15 1.23 1.18 1.11 1.18 1.41 1.61 1.80 1.60 1.39 1.41 1.69 1.94 2.05 2.06 1.81 1.67 1.63 1.84 1.52 1.28 1.17 1.13 1.20 1.13 1.11
1.07 1.04 1.01 1.03 0.97 0.97 1.23 1.56 1.44 1.11 1.03 0.97 0.97 0.91 0.81 0.77 0.97 1.14 1.12 1.09 1.02 1.06 1.19 1.39 1.55 1.62 1.63 1.78 2.07 2.47 2.64 2.63 2.36 2.02 1.81 1.84 1.77 1.61 1.56 1.52 1.43 1.32 1.15
1.00 1.01 0.97 0.97 0.94 0.89 1.07 1.48 1.58 1.17 1.06 0.99 0.99 0.94 1.01 0.99 1.08 1.10 1.01 1.08 1.18 1.06 1.01 1.05 1.10 1.15 1.20 1.35 1.76 2.22 2.57 2.71 2.48 2.37 2.05 1.86 1.86 1.89 2.25 2.05 1.69 1.41 1.22

GEFSMA_prec_meanprecacc_252.txt.gz
Total_Precipitation_Accumulation
0.84 0.83 0.81 0.82 0.82 0.80 0.78 0.77 0.74 0.70 0.67 0.62 0.60 0.57 0.53 0.45 0.38 0.36 0.31 0.33 0.35 0.38 0.50 0.70 0.90 1.19 1.48 1.53 1.58 1.46 1.34 1.28 1.15 1.01 0.99 1.13 1.21 1.18 1.12 1.17 1.09 0.92 0.88
0.90 0.88 0.89 0.84 0.81 0.79 0.77 0.74 0.70 0.68 0.65 0.60 0.54 0.48 0.48 0.49 0.45 0.44 0.39 0.37 0.36 0.35 0.43 0.59 0.79 1.02 1.36 1.59 1.70 1.83 1.66 1.53 1.47 1.27 1.06 1.04 1.13 1.17 1.18 1.19 1.25 1.15 1.01
1.12 1.00 0.95 0.90 0.84 0.82 0.83 0.81 0.79 0.71 0.69 0.63 0.57 0.50 0.44 0.43 0.42 0.44 0.45 0.42 0.41 0.38 0.39 0.50 0.65 0.86 1.10 1.40 1.65 1.92 2.05 1.80 1.72 1.66 1.41 1.15 1.13 1.21 1.26 1.30 1.32 1.37 1.25
1.24 1.23 1.10 0.97 0.88 0.89 0.89 0.89 0.86 0.81 0.72 0.67 0.63 0.56 0.48 0.44 0.42 0.41 0.41 0.42 0.44 0.44 0.42 0.45 0.51 0.67 0.90 1.15 1.43 1.74 2.26 2.20 1.98 1.89 1.84 1.53 1.24 1.21 1.25 1.34 1.40 1.44 1.51
1.31 1.34 1.29 1.18 1.04 1.00 0.94 0.88 0.83 0.81 0.77 0.72 0.70 0.66 0.58 0.51 0.47 0.46 0.41 0.36 0.37 0.43 0.45 0.46 0.50 0.55 0.72 0.94 1.22 1.54 2.14 2.43 2.37 2.28 2.22 2.04 1.63 1.35 1.28 1.33 1.45 1.52 1.62
1.31 1.32 1.34 1.32 1.24 1.16 1.09 0.96 0.87 0.78 0.73 0.71 0.75 0.76 0.67 0.59 0.54 0.51 0.48 0.41 0.35 0.36 0.43 0.47 0.50 0.51 0.59 0.76 0.98 1.26 1.67 2.11 2.34 2.47 2.50 2.54 2.34 1.85 1.55 1.48 1.55 1.69 1.79
1.31 1.34 1.28 1.30 1.30 1.23 1.13 1.06 0.98 0.92 0.84 0.77 0.83 0.91 0.88 0.72 0.61 0.56 0.53 0.50 0.43 0.38 0.39 0.45 0.50 0.54 0.57 0.66 0.78 0.96 1.26 1.67 2.03 2.29 2.41 2.54 2.77 2.59 2.12 1.82 1.75 1.83 1.96
1.24 1.35 1.37 1.29 1.25 1.22 1.17 1.08 1.02 0.97 0.94 0.86 0.84 0.91 0.96 0.95 0.76 0.58 0.51 0.49 0.48 0.46 0.44 0.43 0.47 0.54 0.60 0.62 0.63 0.72 0.90 1.25 1.73 2.16 2.41 2.53 2.73 3.00 2.79 2.31 2.06 2.01 2.10
1.17 1.22 1.34 1.35 1.28 1.23 1.18 1.10 0.99 0.91 0.90 0.86 0.77 0.89 0.97 0.86 0.71 0.59 0.51 0.43 0.42 0.44 0.43 0.43 0.43 0.45 0.52 0.60 0.59 0.58 0.64 0.88 1.33 1.81 2.29 2.58 2.78 3.10 3.27 3.00 2.57 2.33 2.36
1.16 1.13 1.17 1.25 1.29 1.24 1.16 1.08 1.02 0.97 0.95 0.93 0.82 0.73 0.74 0.72 0.75 0.66 0.55 0.50 0.45 0.43 0.42 0.41 0.42 0.41 0.44 0.52 0.58 0.58 0.59 0.70 1.00 1.50 1.99 2.54 2.94 3.22 3.64 3.63 3.34 2.90 2.67
1.22 1.14 1.12 1.14 1.17 1.16 1.10 1.06 1.06 1.03 0.99 0.96 0.90 0.79 0.70 0.61 0.60 0.70 0.60 0.51 0.54 0.51 0.47 0.47 0.46 0.45 0.44 0.48 0.52 0.58 0.66 0.73 0.94 1.31 1.76 2.34 3.08 3.41 3.85 4.09 3.74 3.18 2.82
1.31 1.20 1.10 1.09 1.06 1.03 1.02 0.99 0.98 0.96 0.93 0.89 0.85 0.82 0.81 0.77 0.65 0.66 0.63 0.50 0.49 0.50 0.51 0.54 0.56 0.54 0.51 0.53 0.55 0.68 0.75 0.81 0.97 1.21 1.43 1.85 2.49 3.20 3.67 4.01 3.89 3.40 2.98
1.28 1.22 1.15 1.08 1.03 0.97 0.95 0.94 0.95 0.93 0.87 0.83 0.80 0.76 0.73 0.70 0.65 0.69 0.78 0.69 0.59 0.53 0.55 0.56 0.55 0.58 0.59 0.61 0.63 0.73 0.75 0.79 0.87 1.08 1.16 1.26 1.66 2.32 3.08 3.70 4.02 3.81 3.35
1.16 1.10 1.13 1.07 1.00 0.98 0.97 0.96 0.94 0.91 0.92 0.86 0.76 0.73 0.72 0.67 0.68 0.76 0.87 0.94 0.87 0.64 0.56 0.56 0.51 0.51 0.58 0.60 0.61 0.70 0.66 0.75 0.81 0.93 1.00 1.05 1.21 1.59 2.23 2.99 3.80 4.29 4.02
1.13 1.12 1.13 1.14 1.06 1.05 1.06 1.03 0.99 0.92 0.91 0.91 0.84 0.77 0.77 0.72 0.71 0.72 0.77 0.90 1.13 1.01 0.64 0.46 0.46 0.49 0.56 0.62 0.61 0.58 0.57 0.68 0.75 0.84 0.95 1.00 1.09 1.29 1.66 2.24 2.87 3.80 4.42
1.09 1.11 1.17 1.21 1.16 1.10 1.14 1.16 1.07 0.97 0.96 0.93 0.94 0.91 0.81 0.75 0.76 0.79 0.83 0.84 0.91 1.06 0.85 0.46 0.42 0.44 0.53 0.67 0.76 0.66 0.62 0.76 0.80 0.82 0.84 0.88 0.96 1.14 1.40 1.73 2.19 2.80 3.70
1.07 1.05 1.07 1.18 1.24 1.18 1.11 1.17 1.16 1.08 1.05 0.97 0.94 0.96 0.88 0.81 0.88 0.91 0.95 0.94 0.89 0.93 0.97 0.57 0.45 0.49 0.64 0.74 0.82 0.76 0.75 0.74 0.75 0.79 0.82 0.87 0.92 1.04 1.25 1.49 1.74 2.13 2.79
1.12 1.02 1.00 1.08 1.19 1.20 1.14 1.14 1.14 1.09 1.07 1.04 0.98 0.98 0.97 0.91 0.92 0.95 1.02 1.01 0.93 0.87 0.95 0.80 0.60 0.64 0.73 0.82 0.86 0.83 0.82 0.80 0.72 0.76 0.78 0.89 0.95 1.03 1.18 1.35 1.52 1.74 2.14
1.26 1.11 1.03 1.06 1.16 1.23 1.16 1.10 1.14 1.13 1.04 0.97 0.96 0.99 1.00 1.00 0.93 0.92 1.02 1.06 1.00 0.95 0.99 0.99 0.78 0.70 0.79 0.90 1.01 1.00 0.95 0.93 0.83 0.81 0.82 0.90 1.00 1.02 1.10 1.24 1.44 1.59 1.77
1.30 1.24 1.10 1.06 1.13 1.26 1.28 1.25 1.27 1.22 1.13 0.98 0.86 0.87 0.96 1.08 1.08 1.08 1.11 1.09 1.12 1.17 1.16 1.15 0.99 0.86 0.90 0.99 1.13 1.19 1.16 1.09 1.02 0.93 0.96 1.01 1.08 1.10 1.07 1.09 1.17 1.30 1.48
1.17 1.21 1.20 1.12 1.13 1.34 1.56 1.71 1.60 1.32 1.14 1.04 0.87 0.79 0.88 1.12 1.31 1.47 1.51 1.39 1.39 1.52 1.50 1.45 1.32 1.16 1.05 1.11 1.21 1.20 1.27 1.19 1.17 1.11 1.07 1.07 1.03 1.00 0.99 1.01 1.06 1.13 1.24
1.12 1.15 1.17 1.15 1.13 1.30 1.67 1.88 1.55 1.20 1.06 1.00 0.94 0.83 0.87 1.11 1.26 1.39 1.53 1.49 1.52 1.71 1.82 1.77 1.61 1.38 1.08 0.98 1.06 1.26 1.46 1.61 1.53 1.28 1.19 1.19 1.03 1.02 0.98 0.91 1.04 1.13 1.19
1.12 1.11 1.09 1.10 1.07 1.11 1.46 1.68 1.44 1.12 1.00 0.95 0.92 0.88 0.90 1.00 1.12 1.15 1.26 1.30 1.30 1.47 1.72 1.83 1.78 1.39 1.17 1.07 1.27 1.51 1.57 1.68 1.55 1.45 1.47 1.53 1.24 1.12 1.02 1.03 1.16 1.14 1.19
1.11 1.09 1.09 1.06 1.03 1.07 1.34 1.57 1.39 1.11 1.02 0.97 0.95 0.90 0.84 0.88 1.01 1.16 1.24 1.21 1.13 1.19 1.42 1.61 1.80 1.61 1.40 1.42 1.69 1.95 2.06 2.07 1.81 1.67 1.63 1.84 1.52 1.28 1.18 1.14 1.21 1.14 1.13
1.10 1.06 1.05 1.06 1.01 1.01 1.26 1.59 1.46 1.14 1.06 1.00 0.99 0.93 0.83 0.79 0.99 1.16 1.13 1.11 1.04 1.08 1.19 1.39 1.55 1.63 1.64 1.78 2.08 2.47 2.65 2.64 2.37 2.02 1.81 1.85 1.77 1.61 1.57 1.52 1.44 1.33 1.16
1.05 1.05 1.01 1.00 0.97 0.93 1.12 1.51 1.60 1.19 1.08 1.01 1.00 0.96 1.02 1.00 1.10 1.12 1.02 1.09 1.19 1.07 1.02 1.06 1.10 1.15 1.20 1.35 1.76 2.23 2.59 2.72 2.49 2.38 2.05 1.87 1.87 1.90 2.25 2.06 1.70 1.41 1.23

GEFSMA_prec_meanprecacc_258.txt.gz
Total_Precipitation_Accumulation
0.91 0.89 0.84 0.83 0.83 0.82 0.81 0.81 0.76 0.72 0.69 0.65 0.62 0.59 0.55 0.47 0.40 0.37 0.32 0.34 0.36 0.40 0.53 0.72 0.91 1.20 1.49 1.55 1.59 1.47 1.35 1.29 1.16 1.02 1.01 1.14 1.23 1.19 1.14 1.19 1.11 0.94 0.89
1.00 0.95 0.93 0.85 0.82 0.81 0.80 0.78 0.74 0.70 0.67 0.62 0.57 0.51 0.50 0.51 0.47 0.45 0.40 0.39 0.38 0.37 0.45 0.62 0.80 1.03 1.38 1.61 1.71 1.84 1.67 1.54 1.48 1.28 1.07 1.05 1.14 1.18 1.19 1.21 1.26 1.17 1.02
1.26 1.14 1.04 0.95 0.87 0.86 0.87 0.85 0.82 0.74 0.71 0.65 0.60 0.54 0.48 0.47 0.45 0.47 0.46 0.44 0.44 0.40 0.42 0.53 0.67 0.87 1.12 1.42 1.67 1.93 2.06 1.81 1.73 1.67 1.42 1.16 1.14 1.22 1.27 1.31 1.34 1.39 1.26
1.34 1.38 1.24 1.08 0.94 0.94 0.95 0.94 0.91 0.86 0.77 0.71 0.67 0.61 0.53 0.48 0.45 0.44 0.44 0.44 0.47 0.46 0.45 0.48 0.52 0.68 0.91 1.17 1.45 1.75 2.27 2.21 1.99 1.91 1.85 1.54 1.25 1.22 1.26 1.35 1.42 1.46 1.53
1.37 1.46 1.48 1.31 1.13 1.06 1.00 0.95 0.91 0.87 0.84 0.78 0.75 0.70 0.62 0.54 0.49 0.49 0.44 0.39 0.40 0.45 0.48 0.48 0.51 0.56 0.73 0.95 1.24 1.56 2.15 2.45 2.38 2.29 2.23 2.05 1.64 1.36 1.29 1.35 1.46 1.53 1.64
1.37 1.38 1.46 1.49 1.36 1.24 1.14 1.02 0.96 0.87 0.80 0.78 0.81 0.82 0.72 0.62 0.56 0.54 0.53 0.46 0.39 0.39 0.46 0.49 0.52 0.52 0.59 0.77 1.01 1.29 1.70 2.12 2.36 2.49 2.51 2.55 2.35 1.86 1.57 1.50 1.56 1.71 1.81
1.37 1.39 1.33 1.40 1.43 1.35 1.22 1.12 1.05 1.00 0.92 0.84 0.89 0.97 0.95 0.77 0.64 0.59 0.58 0.56 0.50 0.43 0.42 0.47 0.52 0.55 0.58 0.66 0.81 0.99 1.30 1.70 2.05 2.30 2.43 2.56 2.79 2.60 2.14 1.84 1.77 1.85 1.99
1.29 1.39 1.41 1.34 1.34 1.34 1.29 1.17 1.10 1.06 1.03 0.92 0.88 0.95 1.01 1.01 0.80 0.62 0.57 0.56 0.56 0.53 0.48 0.46 0.49 0.55 0.60 0.62 0.64 0.74 0.94 1.28 1.76 2.19 2.43 2.55 2.76 3.02 2.82 2.34 2.08 2.03 2.13
1.21 1.25 1.37 1.39 1.34 1.31 1.28 1.21 1.10 1.01 1.00 0.93 0.81 0.93 1.01 0.91 0.77 0.64 0.58 0.51 0.50 0.55 0.53 0.49 0.47 0.48 0.54 0.61 0.60 0.60 0.67 0.91 1.36 1.85 2.32 2.63 2.82 3.12 3.31 3.03 2.60 2.36 2.39
1.19 1.16 1.19 1.27 1.33 1.29 1.22 1.17 1.15 1.08 1.05 1.04 0.89 0.78 0.78 0.75 0.79 0.70 0.62 0.59 0.54 0.52 0.53 0.51 0.48 0.45 0.46 0.54 0.60 0.60 0.61 0.72 1.02 1.53 2.03 2.59 2.98 3.26 3.67 3.67 3.37 2.93 2.70
1.26 1.16 1.14 1.16 1.20 1.21 1.14 1.11 1.13 1.12 1.09 1.06 0.98 0.83 0.74 0.65 0.64 0.74 0.65 0.59 0.64 0.59 0.55 0.56 0.54 0.51 0.47 0.49 0.53 0.59 0.67 0.75 0.96 1.33 1.78 2.37 3.12 3.44 3.88 4.12 3.77 3.21 2.85
1.35 1.22 1.11 1.10 1.08 1.06 1.06 1.02 1.03 1.02 1.01 1.00 0.95 0.89 0.87 0.82 0.69 0.70 0.69 0.56 0.56 0.58 0.59 0.61 0.63 0.60 0.55 0.55 0.56 0.69 0.75 0.81 0.98 1.22 1.44 1.86 2.51 3.22 3.70 4.04 3.92 3.43 3.02
1.34 1.26 1.18 1.10 1.05 1.01 0.99 0.97 0.98 0.99 0.94 0.93 0.92 0.85 0.80 0.76 0.70 0.74 0.84 0.76 0.65 0.59 0.62 0.64 0.61 0.63 0.63 0.63 0.64 0.74 0.76 0.80 0.88 1.08 1.17 1.27 1.67 2.33 3.09 3.71 4.05 3.84 3.39
1.21 1.16 1.18 1.12 1.03 1.01 1.02 1.00 0.98 0.97 0.98 0.93 0.86 0.83 0.81 0.74 0.76 0.82 0.92 1.00 0.95 0.70 0.61 0.61 0.56 0.55 0.62 0.63 0.63 0.71 0.67 0.75 0.82 0.94 1.01 1.06 1.22 1.60 2.24 3.01 3.82 4.31 4.05
1.18 1.17 1.18 1.18 1.10 1.09 1.11 1.08 1.03 0.97 0.97 0.98 0.92 0.85 0.84 0.79 0.78 0.79 0.82 0.94 1.18 1.06 0.67 0.49 0.49 0.52 0.58 0.65 0.63 0.59 0.58 0.70 0.76 0.85 0.96 1.01 1.10 1.30 1.67 2.25 2.89 3.82 4.44
1.14 1.16 1.21 1.25 1.20 1.14 1.19 1.21 1.12 1.01 1.01 0.99 1.00 0.97 0.87 0.81 0.83 0.86 0.89 0.88 0.95 1.08 0.87 0.48 0.43 0.46 0.55 0.69 0.77 0.66 0.62 0.77 0.81 0.82 0.84 0.88 0.97 1.15 1.41 1.75 2.20 2.81 3.72
1.14 1.10 1.11 1.21 1.28 1.23 1.16 1.22 1.20 1.11 1.09 1.02 0.98 1.02 0.95 0.87 0.93 0.96 1.00 0.99 0.93 0.96 0.99 0.58 0.46 0.51 0.65 0.75 0.82 0.77 0.75 0.75 0.75 0.80 0.82 0.88 0.93 1.06 1.27 1.51 1.75 2.14 2.80
1.19 1.08 1.05 1.12 1.23 1.24 1.19 1.19 1.18 1.12 1.11 1.08 1.03 1.03 1.04 0.98 0.98 0.99 1.06 1.04 0.96 0.90 0.97 0.82 0.62 0.65 0.74 0.83 0.86 0.84 0.82 0.80 0.72 0.77 0.79 0.90 0.96 1.04 1.20 1.37 1.53 1.75 2.15
1.32 1.17 1.08 1.10 1.19 1.26 1.21 1.15 1.19 1.15 1.07 1.02 1.00 1.04 1.06 1.08 1.01 0.98 1.05 1.09 1.03 0.98 1.01 1.01 0.80 0.71 0.79 0.91 1.02 1.00 0.95 0.94 0.83 0.82 0.83 0.91 1.01 1.03 1.11 1.25 1.45 1.60 1.78
1.36 1.29 1.16 1.10 1.17 1.31 1.33 1.29 1.30 1.25 1.15 1.01 0.90 0.91 1.00 1.15 1.16 1.16 1.17 1.12 1.14 1.19 1.17 1.16 1.00 0.88 0.91 1.00 1.14 1.19 1.16 1.10 1.03 0.94 0.97 1.02 1.08 1.11 1.08 1.09 1.17 1.31 1.48
1.22 1.26 1.25 1.18 1.19 1.40 1.61 1.74 1.63 1.35 1.17 1.07 0.90 0.82 0.91 1.16 1.37 1.55 1.59 1.43 1.41 1.54 1.51 1.46 1.33 1.17 1.06 1.11 1.22 1.21 1.28 1.19 1.18 1.12 1.07 1.07 1.03 1.00 0.99 1.01 1.06 1.14 1.25
1.16 1.18 1.20 1.19 1.18 1.34 1.71 1.92 1.57 1.22 1.08 1.03 0.97 0.86 0.90 1.14 1.30 1.46 1.61 1.57 1.57 1.73 1.83 1.78 1.62 1.39 1.08 0.98 1.07 1.27 1.48 1.62 1.54 1.29 1.19 1.20 1.03 1.02 0.98 0.91 1.04 1.13 1.20
1.16 1.14 1.13 1.13 1.11 1.17 1.51 1.72 1.47 1.14 1.02 0.97 0.94 0.90 0.93 1.03 1.16 1.19 1.32 1.37 1.37 1.51 1.74 1.84 1.79 1.40 1.18 1.08 1.28 1.52 1.58 1.69 1.56 1.45 1.48 1.54 1.24 1.12 1.03 1.04 1.16 1.15 1.20
1.14 1.13 1.12 1.09 1.06 1.11 1.39 1.62 1.43 1.13 1.04 0.99 0.97 0.91 0.86 0.90 1.04 1.20 1.29 1.27 1.19 1.23 1.44 1.62 1.81 1.61 1.41 1.43 1.70 1.96 2.07 2.08 1.82 1.67 1.63 1.84 1.52 1.29 1.18 1.14 1.21 1.15 1.13
1.14 1.10 1.08 1.10 1.05 1.04 1.31 1.64 1.50 1.17 1.09 1.02 1.01 0.95 0.85 0.81 1.01 1.19 1.18 1.16 1.10 1.12 1.22 1.41 1.56 1.63 1.64 1.79 2.08 2.48 2.66 2.65 2.37 2.03 1.81 1.85 1.77 1.61 1.57 1.52 1.44 1.33 1.16
1.07 1.09 1.05 1.04 1.02 0.98 1.16 1.55 1.65 1.23 1.11 1.03 1.02 0.98 1.05 1.02 1.12 1.14 1.05 1.14 1.24 1.12 1.05 1.07 1.11 1.16 1.21 1.35 1.77 2.23 2.60 2.74 2.51 2.39 2.06 1.87 1.87 1.90 2.26 2.06 1.70 1.42 1.23

GEFSMA_prec_meanprecacc_264.txt.gz
Total_Precipitation_Accumulation
1.02 1.01 0.98 0.96 0.91 0.86 0.83 0.83 0.77 0.73 0.70 0.66 0.64 0.61 0.56 0.48 0.41 0.39 0.33 0.35 0.37 0.42 0.56 0.76 0.95 1.23 1.52 1.59 1.63 1.49 1.36 1.30 1.17 1.03 1.02 1.15 1.24 1.21 1.15 1.20 1.12 0.94 0.90
1.14 1.10 1.08 0.99 0.94 0.89 0.84 0.80 0.75 0.71 0.68 0.63 0.58 0.52 0.52 0.52 0.48 0.47 0.42 0.40 0.38 0.38 0.47 0.66 0.85 1.07 1.42 1.65 1.74 1.86 1.68 1.55 1.49 1.29 1.08 1.06 1.15 1.19 1.21 1.22 1.27 1.18 1.04
1.38 1.26 1.20 1.11 1.00 0.97 0.96 0.90 0.85 0.77 0.74 0.67 0.61 0.55 0.50 0.50 0.47 0.48 0.48 0.45 0.45 0.41 0.43 0.56 0.70 0.90 1.15 1.46 1.70 1.95 2.07 1.82 1.74 1.68 1.43 1.17 1.15 1.23 1.29 1.33 1.36 1.41 1.28
1.50 1.51 1.38 1.25 1.11 1.09 1.07 1.04 0.96 0.90 0.80 0.73 0.69 0.63 0.55 0.51 0.47 0.46 0.45 0.46 0.49 0.48 0.46 0.50 0.56 0.72 0.95 1.21 1.49 1.78 2.29 2.22 2.01 1.92 1.87 1.55 1.27 1.23 1.27 1.36 1.43 1.48 1.55
1.57 1.63 1.63 1.49 1.34 1.27 1.19 1.09 0.99 0.92 0.87 0.81 0.77 0.72 0.63 0.57 0.52 0.52 0.47 0.41 0.42 0.47 0.49 0.50 0.53 0.59 0.77 0.99 1.28 1.60 2.17 2.46 2.40 2.31 2.24 2.06 1.65 1.37 1.31 1.36 1.48 1.55 1.66
1.56 1.56 1.60 1.63 1.56 1.49 1.38 1.24 1.11 0.95 0.85 0.83 0.85 0.86 0.76 0.65 0.60 0.58 0.56 0.49 0.41 0.41 0.47 0.51 0.53 0.55 0.64 0.82 1.05 1.32 1.72 2.14 2.37 2.50 2.52 2.56 2.36 1.88 1.59 1.52 1.58 1.73 1.82
1.53 1.54 1.45 1.50 1.55 1.52 1.43 1.34 1.24 1.15 1.01 0.90 0.95 1.02 1.00 0.82 0.69 0.63 0.62 0.61 0.53 0.45 0.44 0.48 0.54 0.58 0.61 0.71 0.85 1.03 1.32 1.72 2.07 2.31 2.44 2.57 2.80 2.62 2.16 1.86 1.79 1.87 2.01
1.42 1.52 1.53 1.44 1.43 1.44 1.43 1.36 1.29 1.23 1.17 1.02 0.97 1.04 1.08 1.07 0.85 0.65 0.61 0.60 0.59 0.56 0.51 0.48 0.51 0.58 0.63 0.66 0.67 0.78 0.97 1.31 1.77 2.20 2.45 2.57 2.77 3.04 2.84 2.36 2.10 2.05 2.15
1.34 1.37 1.47 1.50 1.42 1.37 1.36 1.33 1.26 1.18 1.15 1.05 0.89 1.00 1.08 0.96 0.81 0.67 0.61 0.55 0.53 0.57 0.56 0.51 0.50 0.50 0.58 0.65 0.63 0.62 0.70 0.95 1.39 1.87 2.33 2.64 2.83 3.15 3.33 3.06 2.62 2.38 2.41
1.32 1.29 1.31 1.38 1.43 1.37 1.28 1.24 1.25 1.21 1.19 1.17 1.00 0.85 0.85 0.80 0.83 0.73 0.65 0.62 0.58 0.56 0.56 0.54 0.51 0.48 0.50 0.58 0.63 0.62 0.63 0.76 1.06 1.56 2.04 2.60 3.00 3.28 3.70 3.69 3.40 2.96 2.74
1.34 1.28 1.26 1.29 1.32 1.31 1.22 1.16 1.19 1.22 1.21 1.17 1.08 0.91 0.80 0.70 0.68 0.78 0.67 0.62 0.69 0.66 0.60 0.60 0.58 0.54 0.51 0.53 0.56 0.60 0.68 0.76 0.99 1.36 1.80 2.40 3.16 3.48 3.91 4.15 3.79 3.24 2.88
1.43 1.31 1.21 1.22 1.21 1.19 1.16 1.08 1.08 1.09 1.10 1.11 1.05 0.96 0.92 0.88 0.74 0.75 0.72 0.59 0.60 0.64 0.66 0.68 0.69 0.65 0.59 0.58 0.58 0.70 0.76 0.82 0.99 1.25 1.47 1.89 2.55 3.27 3.73 4.07 3.94 3.46 3.05
1.43 1.35 1.27 1.19 1.15 1.11 1.09 1.04 1.02 1.03 0.99 1.00 1.03 0.96 0.87 0.82 0.75 0.79 0.89 0.80 0.70 0.64 0.69 0.72 0.70 0.70 0.68 0.67 0.67 0.75 0.76 0.81 0.89 1.10 1.19 1.29 1.69 2.36 3.13 3.75 4.08 3.88 3.42
1.29 1.24 1.28 1.22 1.13 1.11 1.12 1.08 1.02 1.01 1.02 0.97 0.93 0.92 0.92 0.83 0.82 0.88 0.98 1.06 1.02 0.77 0.66 0.68 0.66 0.64 0.68 0.68 0.67 0.74 0.68 0.76 0.83 0.95 1.02 1.07 1.23 1.61 2.26 3.03 3.85 4.35 4.09
1.27 1.27 1.29 1.29 1.20 1.19 1.21 1.16 1.10 1.02 1.02 1.02 0.99 0.93 0.93 0.90 0.87 0.85 0.88 1.01 1.25 1.14 0.73 0.55 0.58 0.61 0.65 0.71 0.69 0.64 0.60 0.71 0.78 0.85 0.97 1.01 1.10 1.31 1.68 2.27 2.91 3.85 4.48
1.25 1.28 1.33 1.37 1.32 1.24 1.28 1.29 1.18 1.07 1.07 1.04 1.06 1.06 0.94 0.87 0.91 0.94 0.96 0.95 1.01 1.14 0.92 0.53 0.49 0.53 0.62 0.75 0.84 0.73 0.67 0.80 0.83 0.84 0.86 0.90 0.98 1.17 1.43 1.76 2.22 2.84 3.76
1.22 1.21 1.23 1.32 1.39 1.34 1.27 1.32 1.26 1.17 1.14 1.06 1.04 1.10 1.02 0.91 0.98 1.03 1.09 1.07 1.01 1.03 1.05 0.64 0.51 0.56 0.71 0.82 0.88 0.82 0.81 0.79 0.79 0.82 0.84 0.89 0.94 1.07 1.29 1.52 1.77 2.17 2.84
1.26 1.17 1.16 1.24 1.33 1.35 1.30 1.30 1.27 1.19 1.16 1.13 1.08 1.10 1.11 1.04 1.03 1.06 1.14 1.13 1.05 0.99 1.05 0.89 0.69 0.72 0.80 0.88 0.91 0.89 0.87 0.84 0.75 0.80 0.82 0.92 0.98 1.05 1.21 1.39 1.55 1.78 2.18
1.39 1.26 1.18 1.21 1.30 1.37 1.33 1.26 1.30 1.25 1.13 1.06 1.06 1.10 1.14 1.15 1.08 1.04 1.13 1.18 1.11 1.06 1.08 1.08 0.87 0.78 0.86 0.96 1.08 1.06 1.00 0.98 0.87 0.85 0.86 0.93 1.02 1.05 1.12 1.27 1.47 1.62 1.80
1.43 1.37 1.24 1.19 1.26 1.40 1.42 1.38 1.42 1.36 1.22 1.07 0.97 0.98 1.08 1.22 1.23 1.22 1.23 1.21 1.23 1.27 1.25 1.22 1.07 0.94 0.98 1.06 1.19 1.24 1.21 1.14 1.07 0.97 1.00 1.05 1.10 1.13 1.10 1.12 1.19 1.32 1.49
1.27 1.31 1.31 1.25 1.26 1.48 1.70 1.83 1.71 1.43 1.24 1.14 0.96 0.89 0.97 1.23 1.44 1.61 1.64 1.49 1.50 1.63 1.59 1.52 1.38 1.22 1.11 1.17 1.27 1.25 1.31 1.22 1.21 1.15 1.09 1.09 1.04 1.01 1.00 1.02 1.07 1.15 1.26
1.21 1.23 1.26 1.26 1.24 1.42 1.80 2.00 1.65 1.29 1.14 1.09 1.03 0.92 0.94 1.19 1.36 1.52 1.67 1.63 1.63 1.80 1.91 1.84 1.66 1.43 1.12 1.01 1.10 1.30 1.50 1.64 1.56 1.31 1.20 1.21 1.04 1.03 0.98 0.92 1.05 1.14 1.20
1.22 1.20 1.19 1.20 1.18 1.23 1.59 1.80 1.54 1.20 1.08 1.03 0.99 0.95 0.97 1.06 1.20 1.24 1.38 1.44 1.43 1.57 1.80 1.89 1.83 1.43 1.20 1.10 1.31 1.54 1.60 1.71 1.57 1.46 1.49 1.55 1.24 1.13 1.03 1.04 1.16 1.15 1.21
1.20 1.18 1.18 1.15 1.12 1.17 1.45 1.68 1.49 1.20 1.11 1.06 1.04 0.97 0.90 0.94 1.08 1.25 1.35 1.34 1.25 1.28 1.49 1.67 1.85 1.65 1.44 1.45 1.72 1.98 2.09 2.10 1.83 1.68 1.64 1.85 1.53 1.29 1.18 1.14 1.21 1.15 1.14
1.22 1.17 1.14 1.16 1.11 1.10 1.38 1.70 1.56 1.23 1.14 1.08 1.07 1.00 0.88 0.85 1.05 1.24 1.23 1.21 1.15 1.17 1.27 1.45 1.60 1.67 1.68 1.82 2.11 2.51 2.68 2.67 2.39 2.04 1.82 1.86 1.78 1.61 1.57 1.53 1.44 1.34 1.17
1.14 1.16 1.11 1.10 1.08 1.04 1.23 1.61 1.70 1.28 1.16 1.07 1.07 1.03 1.09 1.06 1.16 1.18 1.09 1.17 1.28 1.17 1.09 1.11 1.15 1.19 1.23 1.37 1.78 2.24 2.61 2.76 2.53 2.41 2.07 1.88 1.88 1.90 2.27 2.07 1.71 1.42 1.25